GEFSMW_prec_meanprecacc_132.txt.gz
Total_Precipitation_Accumulation
0.16 0.17 0.21 0.23 0.23 0.23 0.26 0.32 0.36 0.44 0.53 0.61 0.75 0.96 1.23 1.33 1.43 1.39 1.21 1.16 1.28 1.52 1.72 1.69 1.73 1.75 1.61 1.55 1.61 1.79 1.73 1.46 1.24 1.24 1.06 0.89 0.73 0.80 0.81 0.77 0.79 0.78 0.84
0.11 0.10 0.12 0.14 0.16 0.16 0.17 0.23 0.32 0.42 0.51 0.60 0.77 0.94 1.08 1.07 1.24 1.40 1.38 1.30 1.29 1.44 1.57 1.82 1.91 1.83 1.83 1.94 1.97 2.27 2.39 1.97 1.56 1.54 1.61 1.35 1.13 0.84 0.69 0.72 0.73 0.80 0.99
0.10 0.09 0.09 0.10 0.10 0.11 0.13 0.17 0.24 0.35 0.48 0.64 0.87 1.09 1.27 1.35 1.41 1.34 1.43 1.44 1.37 1.41 1.51 1.66 1.82 1.82 1.88 1.96 2.07 2.39 2.82 2.57 2.07 1.83 2.00 1.68 1.47 1.26 0.86 0.69 0.70 0.81 0.98
0.11 0.09 0.08 0.10 0.10 0.10 0.10 0.13 0.22 0.38 0.59 0.80 1.05 1.31 1.51 1.55 1.43 1.48 1.51 1.39 1.33 1.30 1.37 1.51 1.64 1.76 1.78 1.90 2.00 2.11 2.56 2.87 2.55 2.26 1.93 1.60 1.51 1.56 1.32 0.92 0.81 0.87 0.93
0.15 0.14 0.13 0.16 0.16 0.16 0.18 0.25 0.45 0.70 0.96 1.17 1.43 1.72 1.72 1.60 1.51 1.50 1.47 1.42 1.43 1.40 1.39 1.53 1.60 1.61 1.66 1.76 2.09 2.34 2.59 2.77 2.70 2.59 2.42 2.17 1.85 1.47 1.52 1.43 1.15 1.04 0.96
0.23 0.28 0.32 0.39 0.44 0.47 0.61 0.80 1.07 1.27 1.35 1.48 1.64 1.76 1.73 1.74 1.67 1.49 1.39 1.39 1.43 1.49 1.53 1.59 1.59 1.56 1.59 1.69 1.91 2.18 2.39 2.71 2.87 2.75 2.53 2.36 2.19 1.93 1.75 1.52 1.41 1.36 1.14
0.34 0.46 0.61 0.74 0.85 0.97 1.11 1.24 1.43 1.58 1.53 1.50 1.55 1.59 1.59 1.58 1.57 1.50 1.40 1.35 1.36 1.37 1.41 1.52 1.64 1.72 1.74 1.85 2.02 2.16 2.07 2.29 2.67 2.65 2.47 2.34 2.09 2.04 2.06 1.89 1.60 1.43 1.14
0.52 0.63 0.72 0.83 1.00 1.14 1.20 1.20 1.31 1.42 1.40 1.37 1.34 1.31 1.37 1.39 1.34 1.26 1.25 1.28 1.35 1.33 1.27 1.32 1.43 1.57 1.73 1.78 1.83 1.84 1.81 1.94 2.18 2.26 2.41 2.48 2.21 2.03 1.90 1.80 1.82 1.56 1.32
0.80 0.94 1.05 1.17 1.22 1.25 1.30 1.23 1.22 1.28 1.28 1.22 1.14 1.12 1.17 1.23 1.24 1.18 1.19 1.17 1.17 1.09 1.02 1.02 1.07 1.15 1.23 1.31 1.46 1.55 1.66 1.71 1.83 1.98 2.10 2.24 2.32 2.22 1.96 1.86 1.81 1.74 1.54
1.04 1.33 1.58 1.75 1.57 1.30 1.19 1.15 1.08 1.09 1.17 1.14 1.08 1.04 1.11 1.12 1.11 1.13 1.11 1.10 1.10 1.01 0.94 0.90 0.86 0.83 0.81 0.85 1.03 1.22 1.34 1.45 1.61 1.80 1.93 1.94 1.99 2.16 2.11 1.92 1.88 1.77 1.61
1.19 1.35 1.54 1.71 1.61 1.30 1.07 1.07 1.08 1.04 1.01 1.01 1.03 1.03 1.01 0.91 0.90 0.95 0.95 0.94 0.95 0.99 0.98 0.89 0.82 0.89 0.89 0.85 0.91 0.96 1.02 1.10 1.25 1.40 1.53 1.68 1.92 2.20 2.22 2.17 2.04 1.90 1.72
1.10 1.09 1.14 1.21 1.23 1.08 0.90 0.86 0.99 1.03 0.97 0.94 0.97 0.96 0.87 0.82 0.78 0.77 0.74 0.66 0.64 0.67 0.76 0.84 0.79 0.78 0.80 0.82 0.88 0.90 0.94 0.97 1.05 1.15 1.27 1.44 1.73 2.07 2.28 2.36 2.26 2.10 1.93
1.08 1.04 0.96 0.90 0.93 0.89 0.82 0.79 0.92 1.05 1.06 1.02 0.87 0.79 0.75 0.72 0.70 0.61 0.57 0.55 0.50 0.50 0.54 0.63 0.64 0.73 0.80 0.83 0.85 0.87 0.91 0.93 1.01 1.16 1.21 1.27 1.46 1.65 1.86 2.05 2.17 2.15 2.12
0.78 0.72 0.67 0.62 0.61 0.65 0.69 0.74 0.85 0.92 1.03 1.13 1.02 0.87 0.77 0.70 0.64 0.57 0.54 0.51 0.49 0.52 0.58 0.70 0.74 0.70 0.68 0.73 0.84 0.88 0.84 0.83 0.87 0.96 1.05 1.15 1.19 1.35 1.48 1.59 1.77 1.98 2.21
0.39 0.38 0.38 0.36 0.35 0.35 0.36 0.45 0.56 0.72 0.90 1.10 1.08 0.92 0.86 0.79 0.65 0.60 0.61 0.58 0.61 0.57 0.59 0.70 0.81 0.87 0.83 0.80 0.89 0.86 0.84 0.84 0.83 0.88 0.88 0.94 0.97 1.03 1.20 1.24 1.45 1.77 2.04
0.26 0.25 0.23 0.22 0.17 0.16 0.18 0.19 0.26 0.43 0.60 0.76 0.83 0.78 0.70 0.61 0.58 0.57 0.55 0.52 0.51 0.47 0.47 0.51 0.58 0.68 0.72 0.93 0.89 0.74 0.70 0.75 0.82 0.87 0.86 0.88 0.83 0.81 0.87 0.99 1.11 1.40 1.61
0.20 0.19 0.20 0.19 0.18 0.17 0.16 0.15 0.18 0.25 0.35 0.48 0.57 0.56 0.50 0.44 0.41 0.45 0.46 0.43 0.39 0.40 0.38 0.37 0.38 0.44 0.60 0.68 0.52 0.51 0.57 0.71 0.82 0.89 0.92 0.88 0.83 0.87 0.88 0.89 0.89 0.95 1.12
0.18 0.17 0.17 0.16 0.14 0.13 0.12 0.12 0.15 0.18 0.19 0.23 0.27 0.28 0.29 0.28 0.29 0.31 0.32 0.33 0.32 0.30 0.29 0.37 0.44 0.46 0.48 0.53 0.44 0.43 0.54 0.73 0.87 0.87 0.83 0.89 0.90 0.93 0.99 0.92 0.97 0.92 0.89
0.10 0.08 0.08 0.07 0.05 0.05 0.04 0.05 0.06 0.07 0.06 0.07 0.08 0.11 0.13 0.15 0.17 0.18 0.21 0.30 0.33 0.34 0.37 0.49 0.56 0.50 0.42 0.46 0.48 0.53 0.68 0.81 0.89 0.85 0.85 0.92 0.96 1.09 1.13 1.04 1.09 1.03 0.99
0.02 0.02 0.02 0.01 0.01 0.01 0.01 0.01 0.01 0.01 0.02 0.01 0.01 0.01 0.02 0.03 0.06 0.08 0.11 0.17 0.24 0.31 0.39 0.41 0.38 0.38 0.44 0.51 0.50 0.63 0.81 0.93 1.03 0.99 0.98 1.16 1.11 1.08 1.03 1.01 1.15 1.11 0.95
0.00 0.00 0.00 0.00 0.00 0.00 0.00 0.00 0.00 0.01 0.01 0.01 0.01 0.01 0.01 0.01 0.01 0.02 0.03 0.06 0.11 0.15 0.18 0.19 0.23 0.30 0.46 0.52 0.56 0.75 0.85 0.91 1.06 1.08 1.04 0.97 1.10 1.04 0.96 0.96 1.01 1.14 1.00
0.00 0.00 0.01 0.00 0.00 0.00 0.00 0.00 0.00 0.00 0.01 0.01 0.01 0.01 0.01 0.01 0.01 0.02 0.02 0.02 0.04 0.07 0.10 0.13 0.17 0.23 0.31 0.39 0.46 0.60 0.73 0.81 0.98 1.06 0.95 0.85 1.09 1.05 0.95 0.86 0.88 1.01 1.06
0.00 0.00 0.01 0.01 0.00 0.00 0.00 0.00 0.00 0.00 0.00 0.01 0.01 0.01 0.01 0.01 0.01 0.02 0.02 0.02 0.03 0.06 0.08 0.12 0.19 0.25 0.30 0.32 0.39 0.46 0.56 0.68 0.86 0.91 0.92 0.94 0.98 0.90 0.86 0.93 0.95 0.96 0.97
0.00 0.00 0.00 0.01 0.01 0.00 0.00 0.00 0.00 0.00 0.00 0.00 0.01 0.01 0.01 0.02 0.01 0.02 0.02 0.03 0.03 0.06 0.10 0.17 0.23 0.27 0.30 0.32 0.40 0.48 0.52 0.61 0.71 0.72 0.76 0.79 0.77 0.77 0.80 0.86 0.95 0.97 1.00
0.00 0.00 0.00 0.01 0.00 0.00 0.00 0.00 0.00 0.00 0.00 0.00 0.00 0.01 0.01 0.02 0.02 0.02 0.02 0.03 0.03 0.06 0.12 0.16 0.20 0.21 0.24 0.28 0.37 0.50 0.58 0.68 0.78 0.80 0.73 0.74 0.74 0.73 0.73 0.78 0.81 0.83 0.81
0.00 0.00 0.00 0.00 0.01 0.00 0.00 0.00 0.00 0.00 0.00 0.00 0.00 0.01 0.01 0.02 0.03 0.04 0.03 0.02 0.02 0.03 0.06 0.07 0.10 0.17 0.20 0.18 0.21 0.32 0.46 0.62 0.84 1.06 1.07 1.06 0.99 0.90 0.80 0.73 0.66 0.63 0.64

GEFSMW_prec_meanprecacc_138.txt.gz
Total_Precipitation_Accumulation
0.17 0.18 0.22 0.23 0.24 0.23 0.26 0.32 0.36 0.44 0.53 0.61 0.75 0.96 1.24 1.35 1.44 1.40 1.22 1.16 1.28 1.52 1.72 1.69 1.73 1.75 1.61 1.56 1.61 1.80 1.73 1.46 1.24 1.24 1.06 0.89 0.73 0.81 0.83 0.80 0.82 0.80 0.86
0.11 0.10 0.12 0.15 0.16 0.16 0.18 0.24 0.32 0.42 0.51 0.60 0.77 0.94 1.08 1.08 1.26 1.41 1.39 1.30 1.29 1.44 1.57 1.82 1.91 1.83 1.84 1.95 1.98 2.27 2.39 1.97 1.56 1.54 1.62 1.35 1.13 0.85 0.70 0.74 0.75 0.82 1.01
0.10 0.09 0.09 0.10 0.10 0.12 0.13 0.17 0.24 0.35 0.48 0.64 0.87 1.09 1.27 1.36 1.42 1.35 1.43 1.44 1.37 1.41 1.51 1.66 1.82 1.82 1.88 1.97 2.08 2.40 2.82 2.57 2.07 1.84 2.00 1.68 1.47 1.27 0.87 0.70 0.72 0.82 0.99
0.11 0.10 0.09 0.10 0.10 0.10 0.10 0.14 0.23 0.38 0.59 0.80 1.06 1.31 1.51 1.55 1.44 1.48 1.51 1.39 1.33 1.30 1.37 1.51 1.64 1.76 1.78 1.91 2.00 2.11 2.56 2.87 2.55 2.26 1.93 1.60 1.51 1.56 1.33 0.93 0.82 0.89 0.94
0.15 0.14 0.13 0.16 0.17 0.17 0.18 0.25 0.45 0.70 0.96 1.17 1.43 1.72 1.72 1.61 1.51 1.51 1.47 1.42 1.43 1.40 1.39 1.53 1.60 1.61 1.66 1.76 2.09 2.34 2.59 2.77 2.70 2.59 2.42 2.17 1.85 1.47 1.52 1.44 1.15 1.05 0.98
0.23 0.28 0.33 0.39 0.44 0.47 0.61 0.81 1.08 1.27 1.36 1.48 1.64 1.76 1.73 1.74 1.68 1.49 1.40 1.39 1.43 1.49 1.53 1.59 1.59 1.56 1.59 1.69 1.91 2.18 2.39 2.71 2.87 2.75 2.53 2.36 2.19 1.93 1.76 1.53 1.42 1.37 1.15
0.34 0.46 0.61 0.74 0.85 0.97 1.11 1.24 1.43 1.59 1.54 1.51 1.55 1.59 1.60 1.59 1.57 1.51 1.41 1.35 1.36 1.37 1.41 1.52 1.64 1.72 1.74 1.85 2.02 2.16 2.07 2.29 2.67 2.65 2.47 2.34 2.09 2.04 2.06 1.89 1.61 1.44 1.15
0.52 0.63 0.72 0.83 1.00 1.14 1.20 1.21 1.32 1.43 1.40 1.38 1.34 1.31 1.37 1.40 1.35 1.27 1.25 1.28 1.35 1.33 1.27 1.32 1.43 1.57 1.73 1.78 1.83 1.84 1.81 1.94 2.18 2.26 2.41 2.48 2.21 2.04 1.90 1.81 1.83 1.58 1.33
0.80 0.94 1.05 1.17 1.22 1.25 1.31 1.23 1.23 1.28 1.29 1.23 1.14 1.13 1.18 1.23 1.25 1.19 1.20 1.18 1.17 1.09 1.02 1.02 1.07 1.15 1.23 1.31 1.46 1.55 1.66 1.71 1.83 1.98 2.10 2.24 2.33 2.22 1.97 1.87 1.83 1.75 1.56
1.04 1.33 1.58 1.75 1.57 1.31 1.20 1.15 1.08 1.09 1.18 1.16 1.09 1.04 1.12 1.13 1.11 1.14 1.11 1.10 1.10 1.01 0.94 0.90 0.86 0.83 0.81 0.85 1.03 1.22 1.34 1.45 1.61 1.80 1.93 1.94 1.99 2.17 2.12 1.93 1.88 1.78 1.62
1.19 1.35 1.54 1.71 1.61 1.30 1.07 1.08 1.09 1.05 1.03 1.03 1.05 1.04 1.01 0.91 0.90 0.95 0.96 0.95 0.95 0.99 0.98 0.89 0.82 0.89 0.89 0.85 0.91 0.96 1.02 1.10 1.25 1.40 1.53 1.68 1.93 2.21 2.23 2.17 2.04 1.90 1.73
1.10 1.09 1.14 1.21 1.23 1.08 0.90 0.86 1.00 1.05 0.99 0.96 0.98 0.97 0.88 0.82 0.79 0.77 0.74 0.66 0.64 0.67 0.76 0.84 0.79 0.78 0.80 0.82 0.88 0.90 0.94 0.97 1.05 1.15 1.27 1.44 1.74 2.07 2.29 2.37 2.27 2.11 1.93
1.08 1.04 0.96 0.90 0.93 0.89 0.82 0.79 0.93 1.06 1.08 1.05 0.89 0.80 0.76 0.72 0.71 0.62 0.58 0.55 0.50 0.50 0.54 0.63 0.64 0.73 0.80 0.83 0.85 0.87 0.91 0.93 1.02 1.16 1.21 1.27 1.46 1.66 1.87 2.05 2.18 2.16 2.13
0.78 0.72 0.67 0.62 0.61 0.65 0.69 0.75 0.86 0.93 1.05 1.16 1.03 0.87 0.78 0.70 0.65 0.58 0.55 0.51 0.49 0.52 0.58 0.70 0.74 0.70 0.68 0.73 0.84 0.88 0.84 0.83 0.87 0.96 1.05 1.15 1.20 1.35 1.49 1.60 1.79 2.00 2.22
0.39 0.38 0.38 0.36 0.35 0.35 0.36 0.45 0.58 0.74 0.92 1.11 1.09 0.93 0.86 0.79 0.66 0.60 0.61 0.58 0.61 0.57 0.59 0.70 0.81 0.87 0.83 0.80 0.89 0.86 0.84 0.84 0.83 0.88 0.88 0.95 0.97 1.03 1.21 1.26 1.47 1.79 2.05
0.26 0.25 0.23 0.22 0.17 0.16 0.18 0.20 0.28 0.45 0.61 0.76 0.83 0.79 0.70 0.61 0.58 0.58 0.56 0.52 0.51 0.47 0.47 0.51 0.58 0.68 0.72 0.93 0.89 0.74 0.70 0.75 0.82 0.87 0.87 0.89 0.83 0.81 0.87 1.01 1.13 1.43 1.64
0.20 0.19 0.20 0.19 0.18 0.17 0.16 0.16 0.20 0.26 0.35 0.48 0.57 0.56 0.50 0.44 0.41 0.45 0.46 0.43 0.39 0.40 0.38 0.37 0.38 0.44 0.60 0.68 0.52 0.51 0.57 0.71 0.83 0.90 0.92 0.88 0.84 0.88 0.89 0.91 0.92 0.99 1.16
0.18 0.17 0.17 0.16 0.15 0.13 0.12 0.13 0.16 0.18 0.19 0.23 0.27 0.29 0.29 0.28 0.29 0.32 0.32 0.33 0.32 0.30 0.29 0.37 0.44 0.46 0.48 0.54 0.44 0.43 0.54 0.73 0.87 0.87 0.83 0.89 0.91 0.93 1.00 0.93 1.00 0.95 0.93
0.10 0.08 0.08 0.07 0.05 0.05 0.04 0.05 0.06 0.07 0.07 0.07 0.09 0.11 0.13 0.15 0.18 0.19 0.22 0.30 0.33 0.34 0.37 0.49 0.56 0.50 0.42 0.46 0.48 0.53 0.68 0.81 0.89 0.86 0.85 0.93 0.97 1.10 1.15 1.05 1.10 1.06 1.02
0.02 0.02 0.02 0.02 0.01 0.01 0.01 0.01 0.01 0.01 0.02 0.01 0.01 0.02 0.02 0.03 0.06 0.09 0.11 0.17 0.24 0.31 0.39 0.41 0.38 0.38 0.44 0.51 0.50 0.63 0.81 0.93 1.03 0.99 0.98 1.17 1.12 1.09 1.04 1.02 1.16 1.13 0.98
0.00 0.00 0.00 0.00 0.00 0.00 0.00 0.00 0.00 0.01 0.01 0.01 0.01 0.01 0.01 0.01 0.01 0.02 0.03 0.06 0.11 0.15 0.18 0.19 0.23 0.30 0.46 0.52 0.56 0.75 0.85 0.91 1.06 1.08 1.05 0.98 1.11 1.05 0.97 0.97 1.02 1.16 1.03
0.00 0.00 0.01 0.00 0.00 0.00 0.00 0.00 0.00 0.00 0.01 0.01 0.01 0.01 0.01 0.01 0.01 0.02 0.02 0.02 0.04 0.07 0.10 0.13 0.17 0.23 0.31 0.39 0.46 0.60 0.73 0.82 0.99 1.06 0.97 0.87 1.10 1.06 0.96 0.88 0.90 1.04 1.10
0.00 0.00 0.01 0.01 0.00 0.00 0.00 0.00 0.00 0.00 0.00 0.01 0.01 0.01 0.01 0.01 0.01 0.02 0.02 0.02 0.04 0.06 0.08 0.12 0.19 0.25 0.30 0.32 0.39 0.47 0.56 0.68 0.87 0.92 0.94 0.95 0.99 0.91 0.87 0.94 0.97 0.99 1.01
0.00 0.00 0.00 0.01 0.01 0.00 0.00 0.00 0.00 0.00 0.00 0.00 0.01 0.01 0.01 0.02 0.01 0.02 0.03 0.03 0.03 0.06 0.10 0.17 0.23 0.27 0.30 0.32 0.40 0.48 0.52 0.61 0.71 0.73 0.77 0.81 0.78 0.77 0.81 0.87 0.96 1.01 1.06
0.00 0.00 0.00 0.01 0.00 0.00 0.00 0.00 0.00 0.00 0.00 0.00 0.00 0.01 0.01 0.02 0.02 0.02 0.02 0.03 0.03 0.06 0.12 0.16 0.20 0.21 0.24 0.28 0.37 0.50 0.58 0.68 0.78 0.80 0.73 0.75 0.75 0.74 0.74 0.79 0.83 0.86 0.86
0.00 0.00 0.00 0.00 0.01 0.00 0.00 0.00 0.00 0.00 0.00 0.00 0.00 0.01 0.01 0.02 0.03 0.04 0.03 0.02 0.02 0.04 0.06 0.07 0.10 0.17 0.20 0.18 0.21 0.32 0.47 0.63 0.84 1.07 1.07 1.07 1.01 0.92 0.82 0.74 0.68 0.66 0.67

GEFSMW_prec_meanprecacc_144.txt.gz
Total_Precipitation_Accumulation
0.17 0.18 0.22 0.24 0.24 0.23 0.26 0.32 0.36 0.44 0.53 0.61 0.75 0.96 1.24 1.35 1.44 1.40 1.22 1.16 1.28 1.52 1.72 1.69 1.73 1.75 1.61 1.56 1.62 1.80 1.74 1.47 1.24 1.25 1.07 0.89 0.74 0.82 0.86 0.83 0.85 0.83 0.90
0.11 0.10 0.12 0.15 0.16 0.16 0.18 0.24 0.32 0.42 0.51 0.60 0.77 0.94 1.08 1.08 1.26 1.41 1.39 1.30 1.29 1.44 1.57 1.82 1.91 1.83 1.84 1.95 1.98 2.28 2.41 1.98 1.57 1.55 1.62 1.35 1.15 0.86 0.73 0.77 0.78 0.86 1.05
0.11 0.09 0.10 0.10 0.11 0.12 0.13 0.17 0.24 0.35 0.48 0.64 0.87 1.09 1.27 1.36 1.42 1.35 1.43 1.44 1.37 1.41 1.51 1.66 1.82 1.82 1.89 1.97 2.08 2.40 2.83 2.58 2.07 1.84 2.00 1.69 1.48 1.29 0.90 0.72 0.74 0.85 1.03
0.12 0.10 0.09 0.10 0.10 0.11 0.10 0.14 0.23 0.38 0.59 0.80 1.06 1.31 1.51 1.55 1.44 1.48 1.51 1.39 1.34 1.30 1.37 1.51 1.64 1.76 1.78 1.91 2.01 2.12 2.57 2.87 2.56 2.26 1.93 1.60 1.52 1.57 1.35 0.95 0.85 0.91 0.96
0.16 0.15 0.13 0.16 0.17 0.17 0.18 0.25 0.45 0.70 0.96 1.17 1.43 1.72 1.72 1.61 1.51 1.51 1.48 1.42 1.43 1.40 1.39 1.53 1.60 1.61 1.66 1.76 2.09 2.35 2.60 2.77 2.70 2.59 2.42 2.18 1.86 1.47 1.53 1.47 1.18 1.07 0.99
0.23 0.28 0.33 0.39 0.44 0.47 0.61 0.81 1.08 1.27 1.36 1.49 1.64 1.76 1.73 1.74 1.68 1.50 1.40 1.39 1.44 1.49 1.53 1.59 1.59 1.56 1.59 1.69 1.91 2.19 2.40 2.71 2.87 2.75 2.53 2.37 2.20 1.94 1.77 1.56 1.45 1.39 1.16
0.34 0.46 0.61 0.74 0.85 0.97 1.11 1.24 1.43 1.59 1.54 1.51 1.56 1.59 1.60 1.59 1.57 1.51 1.41 1.35 1.36 1.37 1.41 1.52 1.64 1.72 1.74 1.85 2.02 2.16 2.07 2.30 2.67 2.65 2.48 2.34 2.09 2.04 2.07 1.90 1.62 1.45 1.15
0.52 0.63 0.72 0.83 1.00 1.14 1.20 1.21 1.32 1.43 1.40 1.38 1.35 1.32 1.37 1.40 1.35 1.27 1.26 1.29 1.36 1.33 1.27 1.32 1.43 1.57 1.73 1.78 1.83 1.84 1.81 1.94 2.18 2.26 2.41 2.48 2.21 2.04 1.91 1.82 1.84 1.59 1.34
0.80 0.94 1.05 1.17 1.22 1.25 1.31 1.23 1.23 1.28 1.29 1.23 1.15 1.13 1.18 1.24 1.25 1.19 1.20 1.18 1.18 1.10 1.02 1.02 1.07 1.15 1.23 1.31 1.46 1.55 1.66 1.71 1.83 1.98 2.10 2.24 2.33 2.22 1.97 1.88 1.83 1.77 1.58
1.04 1.33 1.58 1.75 1.57 1.31 1.20 1.15 1.08 1.09 1.18 1.16 1.09 1.05 1.13 1.13 1.12 1.15 1.12 1.11 1.10 1.01 0.94 0.90 0.86 0.83 0.81 0.85 1.03 1.22 1.34 1.45 1.61 1.80 1.93 1.94 1.99 2.17 2.12 1.93 1.90 1.79 1.63
1.19 1.35 1.54 1.71 1.61 1.30 1.07 1.08 1.09 1.05 1.03 1.03 1.05 1.05 1.03 0.93 0.91 0.96 0.97 0.96 0.96 1.00 0.98 0.89 0.82 0.89 0.89 0.85 0.91 0.96 1.02 1.10 1.25 1.40 1.53 1.68 1.93 2.21 2.23 2.18 2.05 1.91 1.74
1.10 1.09 1.14 1.21 1.23 1.08 0.90 0.86 1.00 1.05 1.00 0.97 0.99 0.99 0.90 0.84 0.81 0.79 0.76 0.67 0.64 0.67 0.76 0.84 0.79 0.78 0.80 0.82 0.88 0.90 0.94 0.97 1.05 1.15 1.27 1.44 1.74 2.07 2.29 2.37 2.27 2.11 1.94
1.08 1.04 0.96 0.90 0.93 0.90 0.82 0.79 0.93 1.07 1.10 1.07 0.91 0.82 0.78 0.75 0.73 0.64 0.59 0.56 0.50 0.50 0.54 0.63 0.64 0.73 0.80 0.83 0.85 0.87 0.91 0.93 1.02 1.16 1.21 1.27 1.47 1.66 1.87 2.06 2.18 2.16 2.13
0.78 0.72 0.67 0.62 0.61 0.65 0.69 0.75 0.86 0.94 1.06 1.18 1.06 0.91 0.81 0.73 0.68 0.60 0.55 0.52 0.49 0.52 0.58 0.70 0.74 0.70 0.68 0.73 0.84 0.88 0.84 0.83 0.87 0.96 1.05 1.15 1.20 1.35 1.49 1.60 1.79 2.00 2.22
0.39 0.38 0.38 0.36 0.35 0.35 0.36 0.45 0.59 0.74 0.93 1.14 1.13 0.97 0.90 0.83 0.69 0.62 0.61 0.58 0.61 0.57 0.59 0.70 0.81 0.87 0.83 0.80 0.89 0.86 0.84 0.84 0.83 0.88 0.88 0.95 0.97 1.03 1.21 1.26 1.48 1.80 2.06
0.26 0.25 0.23 0.22 0.17 0.16 0.18 0.20 0.29 0.45 0.63 0.79 0.87 0.83 0.73 0.64 0.60 0.59 0.56 0.53 0.51 0.47 0.47 0.51 0.58 0.68 0.72 0.93 0.89 0.74 0.70 0.75 0.82 0.87 0.87 0.89 0.83 0.81 0.87 1.01 1.13 1.43 1.64
0.20 0.19 0.20 0.19 0.18 0.17 0.16 0.17 0.21 0.27 0.37 0.50 0.60 0.58 0.52 0.45 0.42 0.46 0.46 0.44 0.39 0.40 0.38 0.37 0.38 0.44 0.60 0.68 0.52 0.51 0.57 0.71 0.83 0.90 0.92 0.89 0.84 0.88 0.89 0.91 0.92 0.99 1.17
0.18 0.17 0.17 0.16 0.15 0.13 0.12 0.13 0.16 0.18 0.19 0.24 0.29 0.30 0.30 0.29 0.30 0.32 0.33 0.33 0.32 0.30 0.29 0.37 0.44 0.46 0.48 0.54 0.44 0.43 0.54 0.73 0.87 0.87 0.83 0.89 0.91 0.94 1.00 0.93 1.00 0.95 0.93
0.10 0.08 0.08 0.07 0.05 0.05 0.04 0.05 0.06 0.07 0.07 0.07 0.09 0.11 0.13 0.16 0.18 0.19 0.22 0.30 0.33 0.34 0.37 0.49 0.56 0.50 0.42 0.46 0.48 0.53 0.68 0.81 0.89 0.86 0.85 0.93 0.97 1.10 1.15 1.06 1.11 1.06 1.03
0.02 0.02 0.02 0.02 0.01 0.01 0.01 0.01 0.01 0.01 0.02 0.01 0.01 0.02 0.03 0.04 0.06 0.09 0.12 0.17 0.24 0.31 0.39 0.41 0.38 0.38 0.44 0.51 0.50 0.63 0.81 0.93 1.03 0.99 0.99 1.17 1.12 1.09 1.05 1.03 1.17 1.14 0.98
0.00 0.00 0.00 0.00 0.00 0.00 0.00 0.00 0.00 0.01 0.01 0.01 0.01 0.01 0.01 0.01 0.02 0.03 0.04 0.06 0.11 0.15 0.18 0.19 0.23 0.30 0.46 0.52 0.56 0.75 0.85 0.91 1.06 1.08 1.05 0.98 1.11 1.05 0.98 0.98 1.03 1.16 1.04
0.00 0.00 0.01 0.00 0.00 0.00 0.00 0.00 0.00 0.00 0.01 0.01 0.01 0.01 0.01 0.01 0.01 0.02 0.03 0.02 0.04 0.07 0.10 0.13 0.17 0.23 0.31 0.39 0.46 0.60 0.73 0.82 0.99 1.07 0.97 0.87 1.10 1.06 0.97 0.89 0.91 1.05 1.11
0.00 0.00 0.01 0.01 0.00 0.00 0.00 0.00 0.00 0.00 0.00 0.01 0.01 0.01 0.01 0.01 0.01 0.02 0.03 0.02 0.04 0.06 0.08 0.12 0.19 0.25 0.30 0.32 0.39 0.47 0.56 0.68 0.87 0.92 0.94 0.95 0.99 0.91 0.87 0.96 0.98 1.01 1.03
0.00 0.00 0.00 0.01 0.01 0.00 0.00 0.00 0.00 0.00 0.00 0.00 0.01 0.01 0.01 0.02 0.02 0.02 0.03 0.03 0.03 0.06 0.10 0.17 0.23 0.27 0.30 0.32 0.40 0.48 0.52 0.61 0.71 0.73 0.77 0.81 0.78 0.78 0.82 0.88 0.97 1.02 1.07
0.00 0.00 0.00 0.01 0.00 0.00 0.00 0.00 0.00 0.00 0.00 0.00 0.00 0.01 0.01 0.02 0.02 0.02 0.02 0.03 0.04 0.06 0.12 0.16 0.20 0.21 0.24 0.28 0.37 0.50 0.58 0.68 0.78 0.80 0.73 0.75 0.75 0.74 0.74 0.79 0.83 0.88 0.88
0.00 0.00 0.00 0.00 0.01 0.00 0.00 0.00 0.00 0.00 0.00 0.00 0.00 0.01 0.01 0.02 0.03 0.04 0.03 0.02 0.03 0.04 0.06 0.07 0.10 0.17 0.20 0.18 0.21 0.32 0.47 0.63 0.84 1.07 1.07 1.07 1.01 0.92 0.82 0.75 0.69 0.68 0.70

GEFSMW_prec_meanprecacc_150.txt.gz
Total_Precipitation_Accumulation
0.18 0.18 0.22 0.24 0.24 0.23 0.26 0.32 0.36 0.44 0.53 0.61 0.75 0.96 1.24 1.35 1.44 1.40 1.22 1.16 1.28 1.52 1.72 1.69 1.73 1.76 1.62 1.57 1.63 1.82 1.76 1.48 1.25 1.28 1.10 0.91 0.75 0.84 0.88 0.86 0.89 0.90 0.97
0.12 0.10 0.13 0.15 0.16 0.17 0.18 0.24 0.32 0.42 0.51 0.60 0.77 0.94 1.08 1.08 1.26 1.41 1.39 1.30 1.29 1.44 1.57 1.83 1.92 1.84 1.85 1.96 1.99 2.29 2.43 2.00 1.57 1.57 1.66 1.39 1.18 0.90 0.75 0.80 0.83 0.91 1.11
0.11 0.10 0.10 0.10 0.11 0.12 0.13 0.17 0.24 0.35 0.48 0.64 0.87 1.09 1.27 1.36 1.42 1.35 1.43 1.44 1.37 1.41 1.51 1.66 1.82 1.83 1.89 1.98 2.09 2.40 2.85 2.60 2.08 1.84 2.02 1.72 1.52 1.32 0.95 0.76 0.79 0.90 1.09
0.13 0.11 0.09 0.10 0.10 0.11 0.10 0.14 0.23 0.38 0.59 0.80 1.06 1.31 1.51 1.55 1.44 1.48 1.51 1.39 1.34 1.30 1.37 1.51 1.64 1.76 1.78 1.92 2.02 2.12 2.57 2.88 2.57 2.27 1.94 1.61 1.54 1.61 1.40 1.01 0.90 0.95 1.02
0.17 0.15 0.14 0.16 0.17 0.17 0.18 0.25 0.45 0.70 0.96 1.17 1.43 1.72 1.72 1.61 1.51 1.51 1.48 1.42 1.43 1.40 1.39 1.53 1.60 1.61 1.67 1.77 2.10 2.35 2.60 2.78 2.71 2.60 2.43 2.18 1.87 1.50 1.57 1.51 1.24 1.12 1.04
0.24 0.29 0.34 0.39 0.44 0.47 0.61 0.81 1.08 1.27 1.36 1.49 1.64 1.76 1.73 1.74 1.68 1.50 1.40 1.39 1.44 1.49 1.53 1.59 1.59 1.56 1.59 1.70 1.92 2.20 2.41 2.72 2.88 2.76 2.54 2.38 2.21 1.96 1.80 1.60 1.49 1.43 1.20
0.35 0.47 0.62 0.74 0.85 0.97 1.11 1.24 1.43 1.59 1.54 1.51 1.56 1.59 1.60 1.59 1.57 1.51 1.41 1.36 1.36 1.38 1.41 1.52 1.64 1.72 1.74 1.85 2.03 2.17 2.08 2.30 2.67 2.65 2.49 2.35 2.10 2.06 2.11 1.94 1.66 1.49 1.19
0.53 0.64 0.72 0.84 1.00 1.14 1.20 1.21 1.32 1.43 1.40 1.38 1.35 1.32 1.37 1.40 1.35 1.28 1.26 1.29 1.36 1.34 1.27 1.32 1.43 1.57 1.73 1.78 1.83 1.84 1.81 1.94 2.18 2.26 2.41 2.49 2.22 2.05 1.93 1.85 1.87 1.63 1.39
0.80 0.95 1.05 1.17 1.22 1.25 1.31 1.23 1.23 1.28 1.29 1.23 1.15 1.13 1.18 1.24 1.25 1.19 1.20 1.19 1.18 1.10 1.02 1.03 1.07 1.15 1.23 1.31 1.46 1.55 1.66 1.71 1.83 1.98 2.10 2.24 2.33 2.23 1.98 1.89 1.86 1.80 1.63
1.04 1.33 1.58 1.75 1.57 1.31 1.20 1.15 1.08 1.09 1.18 1.17 1.10 1.06 1.13 1.13 1.12 1.15 1.12 1.11 1.11 1.02 0.95 0.90 0.86 0.83 0.81 0.85 1.03 1.22 1.34 1.45 1.61 1.80 1.93 1.94 1.99 2.17 2.12 1.94 1.91 1.81 1.67
1.19 1.35 1.54 1.71 1.61 1.30 1.07 1.08 1.09 1.06 1.04 1.04 1.06 1.06 1.04 0.93 0.92 0.96 0.97 0.96 0.96 1.01 0.99 0.90 0.83 0.90 0.89 0.85 0.91 0.96 1.02 1.10 1.25 1.40 1.53 1.68 1.93 2.21 2.23 2.18 2.06 1.92 1.76
1.10 1.09 1.14 1.21 1.23 1.08 0.90 0.86 1.00 1.05 1.01 0.99 1.01 1.00 0.91 0.85 0.81 0.79 0.76 0.68 0.65 0.68 0.77 0.85 0.80 0.78 0.80 0.82 0.88 0.90 0.94 0.97 1.05 1.15 1.27 1.44 1.74 2.07 2.29 2.37 2.27 2.12 1.96
1.08 1.04 0.96 0.90 0.93 0.90 0.82 0.79 0.93 1.07 1.11 1.08 0.93 0.83 0.79 0.75 0.73 0.65 0.60 0.57 0.51 0.52 0.56 0.65 0.65 0.73 0.80 0.83 0.85 0.87 0.91 0.93 1.02 1.16 1.21 1.27 1.47 1.66 1.87 2.06 2.18 2.17 2.14
0.78 0.72 0.67 0.62 0.62 0.65 0.69 0.75 0.86 0.94 1.07 1.19 1.08 0.93 0.83 0.75 0.70 0.62 0.57 0.53 0.51 0.54 0.59 0.71 0.75 0.70 0.68 0.73 0.84 0.88 0.84 0.83 0.87 0.96 1.05 1.15 1.20 1.35 1.50 1.60 1.79 2.00 2.23
0.39 0.38 0.38 0.36 0.35 0.35 0.36 0.46 0.59 0.74 0.94 1.16 1.16 1.00 0.93 0.85 0.72 0.65 0.64 0.61 0.64 0.59 0.61 0.71 0.81 0.87 0.83 0.80 0.89 0.86 0.84 0.84 0.83 0.88 0.88 0.95 0.97 1.03 1.22 1.26 1.48 1.80 2.06
0.26 0.25 0.23 0.22 0.17 0.16 0.18 0.20 0.29 0.46 0.64 0.81 0.89 0.85 0.76 0.66 0.63 0.61 0.59 0.55 0.52 0.48 0.47 0.51 0.58 0.68 0.72 0.93 0.89 0.74 0.70 0.75 0.82 0.87 0.87 0.89 0.83 0.81 0.87 1.01 1.14 1.43 1.64
0.20 0.19 0.20 0.19 0.18 0.17 0.16 0.17 0.21 0.27 0.37 0.51 0.61 0.60 0.54 0.47 0.44 0.47 0.47 0.44 0.39 0.40 0.38 0.37 0.38 0.44 0.60 0.68 0.52 0.51 0.57 0.71 0.83 0.90 0.92 0.89 0.84 0.88 0.89 0.91 0.92 0.99 1.17
0.18 0.17 0.17 0.16 0.15 0.13 0.12 0.13 0.16 0.19 0.20 0.25 0.30 0.31 0.31 0.30 0.31 0.33 0.34 0.33 0.32 0.30 0.29 0.37 0.44 0.46 0.48 0.54 0.44 0.43 0.54 0.73 0.87 0.87 0.83 0.89 0.91 0.94 1.00 0.93 1.00 0.95 0.94
0.10 0.08 0.08 0.07 0.05 0.05 0.04 0.05 0.06 0.07 0.07 0.08 0.10 0.12 0.15 0.17 0.19 0.19 0.22 0.30 0.34 0.34 0.37 0.49 0.56 0.50 0.42 0.46 0.48 0.53 0.68 0.81 0.89 0.86 0.85 0.93 0.97 1.10 1.15 1.06 1.11 1.07 1.03
0.02 0.02 0.02 0.02 0.01 0.01 0.01 0.01 0.01 0.01 0.02 0.02 0.02 0.03 0.04 0.05 0.07 0.10 0.12 0.18 0.24 0.31 0.39 0.41 0.38 0.38 0.44 0.51 0.50 0.63 0.81 0.93 1.03 0.99 0.99 1.17 1.12 1.10 1.05 1.03 1.17 1.14 0.99
0.00 0.00 0.00 0.00 0.00 0.00 0.00 0.00 0.00 0.01 0.01 0.01 0.02 0.02 0.02 0.01 0.02 0.03 0.04 0.06 0.11 0.15 0.18 0.19 0.23 0.30 0.46 0.52 0.56 0.75 0.85 0.92 1.06 1.09 1.05 0.98 1.11 1.06 0.98 0.98 1.03 1.17 1.05
0.00 0.00 0.01 0.00 0.00 0.00 0.00 0.00 0.00 0.00 0.01 0.01 0.01 0.01 0.01 0.01 0.01 0.03 0.03 0.03 0.04 0.07 0.10 0.13 0.17 0.23 0.31 0.39 0.46 0.60 0.73 0.82 0.99 1.07 0.97 0.87 1.10 1.06 0.97 0.89 0.91 1.05 1.12
0.00 0.00 0.01 0.01 0.00 0.00 0.00 0.00 0.00 0.00 0.00 0.01 0.01 0.01 0.01 0.01 0.01 0.02 0.03 0.02 0.04 0.06 0.08 0.12 0.19 0.25 0.30 0.32 0.39 0.47 0.56 0.68 0.87 0.93 0.94 0.95 0.99 0.91 0.87 0.96 0.99 1.01 1.03
0.00 0.00 0.00 0.01 0.01 0.00 0.00 0.00 0.00 0.00 0.00 0.00 0.01 0.01 0.01 0.02 0.02 0.02 0.03 0.03 0.03 0.06 0.10 0.17 0.23 0.27 0.30 0.32 0.40 0.48 0.52 0.61 0.71 0.73 0.77 0.81 0.78 0.78 0.82 0.88 0.97 1.03 1.07
0.00 0.00 0.00 0.01 0.00 0.00 0.00 0.00 0.00 0.00 0.00 0.00 0.00 0.01 0.01 0.02 0.02 0.02 0.02 0.03 0.04 0.06 0.12 0.16 0.20 0.21 0.24 0.28 0.37 0.50 0.58 0.68 0.78 0.80 0.74 0.75 0.75 0.75 0.74 0.79 0.83 0.88 0.88
0.00 0.00 0.00 0.00 0.01 0.00 0.00 0.00 0.00 0.00 0.00 0.00 0.00 0.01 0.01 0.02 0.03 0.04 0.03 0.02 0.03 0.04 0.06 0.07 0.10 0.17 0.20 0.18 0.21 0.32 0.47 0.63 0.84 1.07 1.08 1.07 1.01 0.93 0.82 0.75 0.69 0.68 0.70

GEFSMW_prec_meanprecacc_156.txt.gz
Total_Precipitation_Accumulation
0.18 0.18 0.22 0.24 0.24 0.23 0.26 0.32 0.36 0.44 0.53 0.61 0.75 0.96 1.24 1.35 1.44 1.40 1.22 1.16 1.28 1.52 1.72 1.69 1.73 1.76 1.63 1.58 1.64 1.82 1.77 1.50 1.27 1.28 1.11 0.93 0.77 0.87 0.90 0.88 0.91 0.93 1.00
0.12 0.11 0.13 0.15 0.16 0.17 0.18 0.24 0.32 0.42 0.51 0.60 0.77 0.94 1.08 1.08 1.26 1.41 1.39 1.30 1.29 1.44 1.57 1.83 1.92 1.84 1.85 1.97 1.99 2.30 2.43 2.01 1.59 1.57 1.67 1.40 1.19 0.93 0.78 0.83 0.86 0.94 1.14
0.12 0.10 0.10 0.10 0.11 0.12 0.13 0.17 0.24 0.35 0.48 0.64 0.87 1.09 1.27 1.36 1.42 1.35 1.43 1.44 1.37 1.41 1.51 1.66 1.82 1.83 1.89 1.98 2.09 2.41 2.85 2.61 2.08 1.85 2.02 1.72 1.53 1.34 0.97 0.81 0.83 0.94 1.13
0.14 0.11 0.09 0.11 0.10 0.11 0.10 0.14 0.23 0.38 0.59 0.80 1.06 1.31 1.51 1.55 1.44 1.48 1.51 1.39 1.34 1.30 1.37 1.51 1.65 1.77 1.79 1.92 2.02 2.13 2.58 2.89 2.57 2.27 1.94 1.61 1.54 1.62 1.42 1.05 0.95 1.00 1.06
0.18 0.16 0.14 0.16 0.17 0.17 0.18 0.25 0.45 0.70 0.96 1.17 1.43 1.72 1.72 1.61 1.51 1.51 1.48 1.42 1.43 1.40 1.39 1.53 1.60 1.62 1.68 1.78 2.11 2.36 2.60 2.78 2.71 2.61 2.43 2.18 1.88 1.51 1.60 1.54 1.28 1.16 1.09
0.25 0.30 0.34 0.39 0.44 0.47 0.61 0.81 1.08 1.27 1.36 1.49 1.64 1.76 1.73 1.74 1.68 1.50 1.40 1.40 1.44 1.49 1.54 1.59 1.60 1.57 1.60 1.71 1.93 2.21 2.41 2.72 2.89 2.77 2.55 2.39 2.23 1.99 1.84 1.62 1.52 1.47 1.23
0.35 0.48 0.62 0.74 0.85 0.97 1.11 1.25 1.43 1.59 1.54 1.51 1.56 1.59 1.60 1.59 1.57 1.51 1.41 1.36 1.37 1.38 1.42 1.53 1.65 1.72 1.75 1.86 2.03 2.18 2.09 2.30 2.67 2.65 2.49 2.37 2.14 2.09 2.13 1.96 1.67 1.52 1.22
0.53 0.64 0.73 0.84 1.00 1.14 1.20 1.21 1.32 1.43 1.40 1.38 1.35 1.32 1.37 1.40 1.35 1.28 1.26 1.29 1.36 1.34 1.28 1.33 1.44 1.58 1.74 1.78 1.83 1.85 1.82 1.94 2.18 2.26 2.42 2.50 2.24 2.07 1.95 1.87 1.88 1.64 1.41
0.81 0.95 1.05 1.17 1.22 1.25 1.31 1.23 1.23 1.28 1.29 1.23 1.15 1.13 1.18 1.24 1.25 1.19 1.20 1.19 1.18 1.11 1.03 1.04 1.08 1.16 1.24 1.31 1.47 1.56 1.66 1.71 1.83 1.98 2.10 2.25 2.33 2.23 1.99 1.90 1.86 1.82 1.64
1.04 1.34 1.58 1.75 1.58 1.31 1.20 1.16 1.09 1.10 1.18 1.17 1.10 1.06 1.13 1.14 1.12 1.15 1.12 1.11 1.11 1.02 0.96 0.92 0.87 0.84 0.82 0.86 1.04 1.23 1.34 1.45 1.61 1.80 1.93 1.94 2.00 2.17 2.13 1.95 1.91 1.81 1.68
1.19 1.35 1.54 1.71 1.61 1.30 1.07 1.08 1.10 1.06 1.04 1.04 1.06 1.06 1.04 0.93 0.92 0.97 0.97 0.96 0.96 1.01 1.00 0.91 0.84 0.91 0.91 0.86 0.91 0.97 1.03 1.10 1.25 1.40 1.53 1.68 1.93 2.21 2.23 2.18 2.06 1.92 1.76
1.11 1.09 1.14 1.21 1.23 1.08 0.90 0.86 1.00 1.06 1.02 0.99 1.01 1.00 0.91 0.85 0.81 0.79 0.76 0.68 0.66 0.68 0.78 0.86 0.81 0.80 0.82 0.84 0.89 0.91 0.95 0.97 1.05 1.15 1.27 1.44 1.74 2.07 2.29 2.37 2.27 2.12 1.96
1.08 1.04 0.96 0.90 0.93 0.90 0.82 0.80 0.93 1.07 1.12 1.09 0.94 0.84 0.79 0.75 0.74 0.65 0.60 0.57 0.51 0.52 0.56 0.66 0.67 0.75 0.82 0.84 0.86 0.88 0.91 0.93 1.02 1.16 1.21 1.27 1.47 1.66 1.87 2.06 2.18 2.17 2.14
0.78 0.72 0.67 0.62 0.62 0.65 0.69 0.75 0.86 0.95 1.08 1.19 1.09 0.93 0.83 0.75 0.70 0.62 0.57 0.53 0.51 0.54 0.61 0.73 0.77 0.72 0.70 0.74 0.85 0.89 0.84 0.83 0.87 0.96 1.05 1.15 1.20 1.35 1.50 1.60 1.79 2.00 2.23
0.39 0.38 0.38 0.36 0.35 0.35 0.36 0.46 0.59 0.75 0.94 1.16 1.16 1.01 0.94 0.86 0.72 0.65 0.64 0.61 0.64 0.61 0.63 0.72 0.83 0.89 0.84 0.81 0.90 0.87 0.84 0.84 0.83 0.88 0.88 0.95 0.97 1.03 1.22 1.26 1.48 1.80 2.06
0.26 0.25 0.24 0.22 0.17 0.16 0.18 0.20 0.29 0.46 0.64 0.81 0.90 0.87 0.77 0.67 0.63 0.62 0.60 0.56 0.54 0.50 0.49 0.53 0.59 0.69 0.73 0.93 0.89 0.74 0.70 0.75 0.82 0.87 0.87 0.89 0.83 0.81 0.88 1.01 1.14 1.43 1.64
0.20 0.19 0.20 0.19 0.18 0.17 0.16 0.17 0.21 0.27 0.38 0.51 0.61 0.61 0.55 0.48 0.45 0.49 0.49 0.45 0.41 0.42 0.39 0.38 0.38 0.45 0.60 0.68 0.53 0.51 0.57 0.71 0.83 0.90 0.92 0.89 0.84 0.88 0.89 0.91 0.92 0.99 1.17
0.18 0.17 0.17 0.16 0.15 0.13 0.12 0.13 0.16 0.19 0.20 0.25 0.30 0.31 0.31 0.30 0.32 0.34 0.34 0.34 0.33 0.31 0.30 0.38 0.45 0.46 0.48 0.54 0.44 0.43 0.54 0.73 0.87 0.87 0.83 0.89 0.91 0.94 1.00 0.93 1.00 0.95 0.94
0.10 0.08 0.08 0.07 0.05 0.05 0.04 0.05 0.06 0.07 0.07 0.08 0.10 0.13 0.15 0.17 0.19 0.20 0.22 0.30 0.34 0.34 0.38 0.49 0.56 0.50 0.42 0.47 0.48 0.53 0.68 0.81 0.89 0.86 0.85 0.93 0.97 1.10 1.15 1.06 1.11 1.07 1.03
0.02 0.02 0.02 0.02 0.01 0.01 0.01 0.01 0.01 0.01 0.02 0.02 0.02 0.03 0.04 0.05 0.07 0.10 0.12 0.18 0.24 0.31 0.39 0.41 0.38 0.38 0.44 0.51 0.50 0.63 0.81 0.93 1.03 0.99 0.99 1.17 1.12 1.10 1.05 1.03 1.17 1.14 0.99
0.00 0.00 0.00 0.00 0.00 0.00 0.00 0.00 0.00 0.01 0.01 0.02 0.02 0.02 0.02 0.01 0.02 0.03 0.04 0.06 0.11 0.15 0.18 0.19 0.23 0.30 0.46 0.52 0.56 0.75 0.85 0.92 1.06 1.09 1.05 0.98 1.11 1.06 0.98 0.98 1.03 1.17 1.05
0.00 0.00 0.01 0.00 0.00 0.00 0.00 0.00 0.00 0.00 0.01 0.01 0.01 0.01 0.01 0.01 0.01 0.03 0.03 0.03 0.04 0.07 0.10 0.13 0.17 0.23 0.31 0.39 0.46 0.60 0.73 0.82 0.99 1.07 0.97 0.87 1.10 1.06 0.97 0.89 0.91 1.05 1.12
0.00 0.00 0.01 0.01 0.00 0.00 0.00 0.00 0.00 0.00 0.01 0.01 0.01 0.01 0.01 0.01 0.01 0.02 0.03 0.02 0.04 0.06 0.08 0.12 0.19 0.25 0.30 0.32 0.39 0.47 0.56 0.68 0.87 0.93 0.94 0.95 0.99 0.91 0.87 0.96 0.99 1.01 1.03
0.00 0.00 0.00 0.01 0.01 0.00 0.00 0.00 0.00 0.00 0.00 0.00 0.01 0.01 0.01 0.02 0.02 0.02 0.03 0.03 0.03 0.06 0.10 0.17 0.23 0.27 0.30 0.32 0.40 0.48 0.52 0.61 0.71 0.73 0.77 0.81 0.78 0.78 0.82 0.88 0.97 1.03 1.07
0.00 0.00 0.00 0.01 0.00 0.00 0.00 0.00 0.00 0.00 0.00 0.00 0.01 0.01 0.01 0.02 0.02 0.02 0.02 0.03 0.04 0.06 0.12 0.16 0.20 0.21 0.24 0.28 0.37 0.50 0.58 0.68 0.78 0.80 0.74 0.75 0.75 0.75 0.74 0.79 0.83 0.88 0.88
0.00 0.00 0.00 0.00 0.01 0.00 0.00 0.00 0.00 0.00 0.00 0.00 0.00 0.01 0.01 0.02 0.03 0.04 0.03 0.02 0.03 0.04 0.06 0.07 0.10 0.17 0.20 0.18 0.21 0.32 0.47 0.63 0.84 1.07 1.08 1.07 1.01 0.93 0.82 0.75 0.69 0.68 0.71

GEFSMW_prec_meanprecacc_162.txt.gz
Total_Precipitation_Accumulation
0.18 0.18 0.23 0.25 0.24 0.23 0.26 0.32 0.36 0.44 0.53 0.61 0.75 0.96 1.24 1.35 1.44 1.40 1.22 1.16 1.28 1.52 1.72 1.69 1.73 1.76 1.63 1.58 1.64 1.82 1.77 1.51 1.28 1.29 1.12 0.94 0.78 0.90 0.94 0.92 0.94 0.94 1.01
0.12 0.11 0.13 0.15 0.16 0.17 0.18 0.24 0.32 0.42 0.51 0.60 0.77 0.94 1.08 1.08 1.26 1.41 1.39 1.30 1.29 1.44 1.57 1.83 1.92 1.84 1.85 1.97 1.99 2.30 2.43 2.01 1.59 1.58 1.69 1.42 1.20 0.95 0.81 0.87 0.90 0.98 1.17
0.12 0.10 0.11 0.10 0.11 0.12 0.13 0.17 0.24 0.35 0.48 0.64 0.87 1.09 1.27 1.36 1.42 1.35 1.43 1.44 1.37 1.41 1.51 1.67 1.82 1.83 1.89 1.98 2.10 2.41 2.85 2.61 2.09 1.85 2.03 1.72 1.53 1.35 0.99 0.84 0.87 0.97 1.16
0.14 0.12 0.10 0.11 0.11 0.11 0.10 0.14 0.23 0.38 0.59 0.80 1.06 1.31 1.51 1.55 1.44 1.48 1.51 1.39 1.34 1.30 1.37 1.51 1.65 1.77 1.79 1.92 2.02 2.13 2.58 2.89 2.58 2.28 1.95 1.62 1.55 1.64 1.44 1.07 0.97 1.01 1.08
0.19 0.17 0.15 0.17 0.18 0.17 0.19 0.25 0.46 0.71 0.96 1.17 1.43 1.72 1.72 1.61 1.51 1.51 1.48 1.42 1.43 1.40 1.39 1.53 1.61 1.63 1.68 1.78 2.11 2.36 2.61 2.79 2.72 2.61 2.44 2.19 1.88 1.53 1.63 1.56 1.28 1.16 1.10
0.26 0.31 0.34 0.39 0.44 0.48 0.62 0.81 1.08 1.27 1.36 1.49 1.64 1.76 1.73 1.74 1.68 1.50 1.40 1.40 1.44 1.49 1.54 1.60 1.60 1.58 1.61 1.72 1.94 2.21 2.42 2.73 2.89 2.77 2.55 2.40 2.25 2.01 1.87 1.65 1.54 1.48 1.25
0.36 0.48 0.62 0.74 0.86 0.98 1.12 1.25 1.43 1.59 1.54 1.51 1.56 1.59 1.60 1.59 1.57 1.51 1.41 1.36 1.37 1.38 1.42 1.53 1.65 1.73 1.75 1.87 2.04 2.18 2.09 2.30 2.67 2.65 2.50 2.39 2.16 2.13 2.16 1.98 1.69 1.53 1.25
0.54 0.65 0.73 0.84 1.01 1.15 1.21 1.21 1.32 1.43 1.40 1.38 1.35 1.32 1.37 1.40 1.35 1.28 1.26 1.29 1.36 1.34 1.28 1.33 1.44 1.58 1.74 1.79 1.84 1.85 1.82 1.94 2.19 2.27 2.43 2.52 2.26 2.11 1.97 1.87 1.89 1.67 1.43
0.81 0.96 1.06 1.18 1.22 1.26 1.32 1.24 1.23 1.29 1.30 1.24 1.15 1.13 1.18 1.24 1.25 1.19 1.20 1.19 1.18 1.11 1.03 1.04 1.08 1.16 1.25 1.32 1.48 1.56 1.67 1.71 1.83 1.99 2.12 2.26 2.34 2.25 2.00 1.91 1.88 1.84 1.66
1.05 1.34 1.59 1.76 1.58 1.31 1.21 1.17 1.09 1.10 1.19 1.17 1.10 1.06 1.13 1.14 1.12 1.15 1.12 1.11 1.11 1.03 0.96 0.92 0.87 0.84 0.83 0.87 1.05 1.24 1.35 1.46 1.62 1.81 1.93 1.95 2.00 2.18 2.13 1.95 1.92 1.83 1.70
1.20 1.35 1.55 1.72 1.62 1.31 1.08 1.09 1.10 1.06 1.04 1.05 1.07 1.07 1.04 0.93 0.92 0.97 0.97 0.96 0.96 1.01 1.00 0.91 0.84 0.91 0.91 0.88 0.94 1.00 1.04 1.11 1.25 1.40 1.53 1.69 1.93 2.21 2.24 2.18 2.06 1.92 1.77
1.11 1.09 1.15 1.21 1.23 1.09 0.90 0.87 1.00 1.06 1.02 0.99 1.02 1.01 0.91 0.85 0.81 0.80 0.77 0.68 0.66 0.68 0.78 0.86 0.81 0.80 0.83 0.85 0.92 0.93 0.96 0.97 1.05 1.15 1.27 1.44 1.74 2.08 2.29 2.37 2.28 2.12 1.96
1.08 1.05 0.96 0.90 0.93 0.90 0.83 0.80 0.93 1.08 1.12 1.10 0.94 0.84 0.79 0.75 0.74 0.65 0.61 0.57 0.51 0.52 0.57 0.66 0.67 0.76 0.83 0.85 0.88 0.89 0.92 0.94 1.02 1.16 1.21 1.27 1.47 1.66 1.87 2.06 2.18 2.17 2.14
0.78 0.72 0.67 0.62 0.62 0.65 0.69 0.75 0.86 0.95 1.08 1.20 1.09 0.94 0.83 0.75 0.70 0.62 0.58 0.53 0.51 0.54 0.61 0.73 0.77 0.73 0.70 0.75 0.86 0.90 0.85 0.83 0.88 0.96 1.05 1.15 1.20 1.35 1.50 1.60 1.79 2.00 2.23
0.39 0.38 0.38 0.36 0.35 0.35 0.36 0.46 0.59 0.75 0.94 1.16 1.17 1.02 0.94 0.86 0.72 0.65 0.64 0.61 0.64 0.61 0.63 0.72 0.83 0.90 0.84 0.82 0.90 0.87 0.85 0.85 0.83 0.88 0.88 0.95 0.97 1.03 1.22 1.26 1.48 1.80 2.06
0.26 0.26 0.24 0.22 0.17 0.16 0.18 0.20 0.29 0.46 0.64 0.81 0.90 0.87 0.78 0.67 0.63 0.62 0.60 0.56 0.54 0.50 0.49 0.53 0.60 0.69 0.73 0.94 0.90 0.74 0.70 0.76 0.82 0.87 0.87 0.89 0.83 0.81 0.88 1.01 1.14 1.43 1.64
0.20 0.19 0.20 0.20 0.18 0.17 0.16 0.17 0.21 0.27 0.38 0.51 0.61 0.61 0.56 0.49 0.45 0.49 0.49 0.46 0.41 0.42 0.39 0.38 0.39 0.45 0.60 0.68 0.53 0.51 0.58 0.71 0.83 0.90 0.92 0.89 0.84 0.88 0.89 0.91 0.92 0.99 1.17
0.18 0.18 0.18 0.16 0.15 0.13 0.12 0.13 0.16 0.19 0.21 0.26 0.30 0.32 0.32 0.31 0.32 0.34 0.34 0.34 0.33 0.31 0.30 0.38 0.45 0.46 0.48 0.54 0.44 0.44 0.54 0.74 0.87 0.88 0.83 0.89 0.91 0.94 1.00 0.93 1.00 0.95 0.94
0.10 0.08 0.08 0.07 0.05 0.05 0.04 0.05 0.06 0.07 0.08 0.08 0.10 0.13 0.15 0.18 0.20 0.20 0.23 0.31 0.34 0.35 0.38 0.49 0.56 0.50 0.43 0.47 0.48 0.54 0.69 0.81 0.89 0.86 0.85 0.93 0.97 1.10 1.15 1.06 1.11 1.07 1.03
0.02 0.02 0.02 0.02 0.01 0.01 0.01 0.01 0.01 0.01 0.02 0.02 0.02 0.03 0.04 0.05 0.08 0.11 0.13 0.18 0.25 0.32 0.39 0.41 0.39 0.39 0.46 0.52 0.51 0.64 0.82 0.94 1.04 0.99 0.99 1.17 1.12 1.10 1.05 1.03 1.17 1.14 0.99
0.00 0.00 0.00 0.00 0.00 0.00 0.00 0.00 0.00 0.01 0.02 0.03 0.03 0.03 0.02 0.01 0.02 0.03 0.04 0.07 0.12 0.16 0.18 0.20 0.24 0.32 0.47 0.53 0.56 0.76 0.85 0.92 1.07 1.09 1.05 0.98 1.11 1.06 0.98 0.98 1.03 1.17 1.05
0.00 0.00 0.01 0.00 0.00 0.00 0.00 0.00 0.00 0.00 0.01 0.02 0.03 0.02 0.01 0.01 0.01 0.03 0.03 0.03 0.04 0.07 0.11 0.14 0.19 0.25 0.32 0.40 0.47 0.60 0.73 0.82 0.99 1.07 0.97 0.87 1.10 1.06 0.97 0.89 0.91 1.05 1.12
0.00 0.00 0.01 0.01 0.00 0.00 0.00 0.00 0.00 0.00 0.01 0.02 0.02 0.02 0.02 0.02 0.02 0.02 0.03 0.02 0.04 0.06 0.08 0.13 0.19 0.25 0.30 0.32 0.39 0.47 0.56 0.68 0.87 0.93 0.94 0.95 0.99 0.91 0.87 0.96 0.99 1.01 1.03
0.00 0.00 0.00 0.01 0.01 0.00 0.00 0.00 0.01 0.01 0.01 0.01 0.01 0.01 0.02 0.02 0.02 0.03 0.03 0.03 0.03 0.06 0.10 0.17 0.23 0.27 0.30 0.32 0.40 0.48 0.52 0.61 0.71 0.73 0.77 0.81 0.78 0.78 0.82 0.88 0.98 1.03 1.07
0.00 0.00 0.00 0.01 0.00 0.00 0.00 0.01 0.01 0.01 0.00 0.01 0.01 0.01 0.02 0.03 0.03 0.02 0.02 0.03 0.04 0.06 0.12 0.16 0.20 0.21 0.24 0.28 0.37 0.51 0.58 0.68 0.78 0.80 0.74 0.75 0.75 0.75 0.75 0.80 0.83 0.88 0.88
0.00 0.00 0.00 0.00 0.01 0.00 0.00 0.00 0.00 0.00 0.00 0.01 0.00 0.01 0.01 0.02 0.03 0.04 0.03 0.03 0.03 0.04 0.06 0.07 0.10 0.17 0.20 0.18 0.22 0.32 0.47 0.63 0.84 1.07 1.08 1.07 1.02 0.93 0.82 0.75 0.70 0.68 0.71

GEFSMW_prec_meanprecacc_168.txt.gz
Total_Precipitation_Accumulation
0.18 0.18 0.23 0.25 0.24 0.23 0.26 0.32 0.36 0.44 0.53 0.61 0.75 0.96 1.24 1.35 1.44 1.40 1.22 1.16 1.28 1.52 1.72 1.69 1.74 1.77 1.64 1.59 1.64 1.83 1.78 1.51 1.29 1.31 1.13 0.95 0.80 0.92 0.95 0.93 0.95 0.96 1.03
0.12 0.11 0.13 0.15 0.16 0.17 0.18 0.24 0.32 0.42 0.51 0.60 0.77 0.94 1.08 1.08 1.26 1.41 1.39 1.30 1.29 1.44 1.58 1.83 1.92 1.84 1.86 1.97 2.00 2.32 2.45 2.02 1.60 1.60 1.70 1.43 1.23 0.97 0.83 0.88 0.92 1.00 1.19
0.12 0.10 0.11 0.11 0.11 0.12 0.13 0.17 0.24 0.35 0.48 0.64 0.87 1.09 1.27 1.36 1.42 1.35 1.43 1.44 1.37 1.41 1.51 1.67 1.82 1.83 1.90 1.98 2.10 2.42 2.87 2.62 2.09 1.86 2.05 1.74 1.55 1.37 1.01 0.85 0.88 0.99 1.19
0.15 0.12 0.10 0.11 0.11 0.11 0.10 0.14 0.23 0.38 0.59 0.80 1.06 1.31 1.51 1.55 1.44 1.48 1.51 1.39 1.34 1.31 1.37 1.51 1.65 1.77 1.79 1.93 2.02 2.13 2.59 2.90 2.59 2.29 1.95 1.63 1.55 1.65 1.46 1.09 0.99 1.03 1.11
0.19 0.17 0.15 0.17 0.18 0.17 0.19 0.26 0.46 0.71 0.96 1.17 1.43 1.72 1.72 1.61 1.51 1.51 1.48 1.42 1.43 1.40 1.39 1.54 1.61 1.63 1.68 1.78 2.11 2.36 2.61 2.80 2.73 2.62 2.44 2.19 1.89 1.55 1.66 1.59 1.32 1.19 1.12
0.26 0.31 0.34 0.40 0.45 0.48 0.62 0.82 1.09 1.27 1.36 1.49 1.64 1.76 1.73 1.74 1.68 1.50 1.40 1.40 1.44 1.49 1.54 1.60 1.60 1.58 1.61 1.72 1.94 2.21 2.42 2.73 2.89 2.77 2.55 2.41 2.27 2.04 1.89 1.67 1.56 1.50 1.28
0.36 0.48 0.62 0.75 0.86 0.99 1.13 1.26 1.44 1.59 1.54 1.51 1.56 1.59 1.60 1.59 1.57 1.51 1.41 1.36 1.37 1.38 1.42 1.53 1.65 1.73 1.75 1.87 2.04 2.18 2.09 2.31 2.68 2.66 2.50 2.40 2.19 2.14 2.17 1.99 1.70 1.55 1.27
0.54 0.65 0.73 0.84 1.01 1.15 1.21 1.22 1.33 1.43 1.40 1.38 1.35 1.32 1.37 1.40 1.35 1.28 1.26 1.29 1.36 1.34 1.28 1.33 1.44 1.58 1.74 1.79 1.84 1.86 1.83 1.95 2.20 2.28 2.44 2.53 2.27 2.12 1.98 1.88 1.91 1.68 1.44
0.81 0.96 1.06 1.18 1.23 1.26 1.32 1.24 1.24 1.30 1.31 1.24 1.15 1.13 1.18 1.24 1.25 1.19 1.20 1.19 1.18 1.11 1.03 1.04 1.08 1.16 1.25 1.32 1.48 1.57 1.68 1.73 1.85 2.00 2.12 2.26 2.35 2.25 2.01 1.92 1.89 1.85 1.67
1.05 1.34 1.59 1.76 1.59 1.32 1.22 1.18 1.11 1.12 1.20 1.18 1.10 1.06 1.13 1.14 1.12 1.15 1.12 1.11 1.11 1.03 0.96 0.92 0.87 0.84 0.83 0.87 1.05 1.25 1.37 1.47 1.63 1.82 1.94 1.95 2.00 2.18 2.14 1.95 1.93 1.85 1.71
1.20 1.35 1.55 1.72 1.63 1.32 1.09 1.10 1.12 1.09 1.07 1.06 1.07 1.07 1.04 0.94 0.92 0.97 0.97 0.96 0.96 1.01 1.00 0.91 0.85 0.91 0.91 0.88 0.94 1.00 1.06 1.12 1.27 1.42 1.54 1.69 1.94 2.22 2.24 2.18 2.06 1.94 1.78
1.11 1.09 1.15 1.21 1.24 1.10 0.91 0.88 1.03 1.09 1.04 1.01 1.03 1.01 0.92 0.86 0.82 0.80 0.77 0.68 0.66 0.69 0.78 0.87 0.82 0.80 0.83 0.85 0.92 0.94 0.98 0.99 1.07 1.16 1.28 1.45 1.74 2.08 2.29 2.37 2.28 2.12 1.96
1.08 1.05 0.97 0.90 0.93 0.90 0.83 0.80 0.93 1.08 1.13 1.10 0.94 0.84 0.80 0.76 0.74 0.65 0.61 0.57 0.51 0.52 0.57 0.66 0.67 0.76 0.83 0.85 0.88 0.90 0.93 0.96 1.03 1.16 1.21 1.27 1.47 1.66 1.87 2.06 2.18 2.17 2.14
0.78 0.72 0.67 0.62 0.62 0.65 0.69 0.75 0.86 0.95 1.08 1.20 1.09 0.94 0.83 0.75 0.70 0.62 0.58 0.54 0.51 0.54 0.61 0.73 0.77 0.73 0.71 0.75 0.86 0.90 0.86 0.85 0.88 0.96 1.05 1.15 1.20 1.35 1.50 1.60 1.79 2.00 2.23
0.39 0.38 0.38 0.36 0.35 0.35 0.36 0.46 0.59 0.75 0.94 1.16 1.17 1.02 0.94 0.86 0.72 0.65 0.64 0.61 0.64 0.61 0.63 0.73 0.83 0.90 0.84 0.82 0.91 0.87 0.85 0.85 0.83 0.88 0.88 0.95 0.97 1.03 1.22 1.26 1.48 1.80 2.06
0.26 0.26 0.24 0.22 0.17 0.16 0.18 0.20 0.29 0.46 0.64 0.81 0.90 0.87 0.78 0.67 0.63 0.62 0.60 0.56 0.55 0.51 0.50 0.54 0.61 0.70 0.74 0.94 0.90 0.74 0.71 0.76 0.82 0.87 0.87 0.89 0.83 0.82 0.88 1.01 1.14 1.44 1.65
0.20 0.19 0.20 0.20 0.18 0.17 0.16 0.17 0.21 0.27 0.38 0.51 0.61 0.61 0.56 0.49 0.45 0.49 0.49 0.46 0.41 0.42 0.39 0.39 0.39 0.45 0.60 0.68 0.53 0.51 0.58 0.72 0.83 0.90 0.93 0.89 0.84 0.88 0.89 0.91 0.92 0.99 1.17
0.18 0.18 0.18 0.16 0.15 0.13 0.12 0.13 0.16 0.19 0.21 0.26 0.31 0.32 0.33 0.32 0.33 0.34 0.34 0.34 0.33 0.31 0.30 0.38 0.45 0.46 0.48 0.54 0.45 0.44 0.55 0.74 0.87 0.88 0.84 0.90 0.91 0.94 1.00 0.93 1.00 0.96 0.94
0.10 0.08 0.08 0.07 0.05 0.05 0.05 0.05 0.06 0.07 0.08 0.09 0.11 0.13 0.15 0.19 0.21 0.22 0.24 0.31 0.34 0.35 0.38 0.49 0.56 0.50 0.43 0.47 0.48 0.54 0.69 0.81 0.90 0.86 0.86 0.93 0.97 1.10 1.15 1.06 1.11 1.07 1.03
0.02 0.02 0.02 0.02 0.01 0.01 0.01 0.01 0.01 0.01 0.02 0.02 0.02 0.04 0.04 0.05 0.08 0.12 0.15 0.19 0.25 0.32 0.39 0.41 0.39 0.39 0.46 0.52 0.51 0.64 0.82 0.94 1.04 1.00 0.99 1.17 1.12 1.10 1.05 1.03 1.18 1.14 0.99
0.00 0.00 0.00 0.00 0.00 0.00 0.00 0.00 0.00 0.01 0.02 0.03 0.04 0.04 0.03 0.02 0.03 0.04 0.05 0.08 0.13 0.16 0.19 0.20 0.25 0.32 0.48 0.53 0.57 0.76 0.86 0.92 1.07 1.09 1.05 0.99 1.12 1.06 0.98 0.98 1.03 1.17 1.05
0.00 0.00 0.01 0.00 0.00 0.00 0.00 0.00 0.00 0.01 0.01 0.02 0.04 0.03 0.03 0.02 0.02 0.03 0.03 0.03 0.05 0.08 0.12 0.16 0.21 0.26 0.33 0.41 0.48 0.61 0.74 0.82 0.99 1.07 0.97 0.87 1.10 1.06 0.97 0.89 0.91 1.05 1.12
0.00 0.00 0.01 0.01 0.00 0.00 0.01 0.01 0.01 0.01 0.01 0.02 0.03 0.03 0.03 0.03 0.02 0.03 0.03 0.03 0.04 0.06 0.09 0.14 0.20 0.27 0.31 0.34 0.40 0.47 0.56 0.69 0.87 0.93 0.94 0.95 0.99 0.91 0.87 0.96 0.99 1.01 1.04
0.00 0.00 0.00 0.01 0.01 0.01 0.01 0.01 0.01 0.02 0.02 0.02 0.02 0.02 0.03 0.04 0.03 0.04 0.04 0.04 0.04 0.06 0.10 0.17 0.24 0.28 0.31 0.33 0.40 0.48 0.52 0.62 0.71 0.73 0.77 0.81 0.78 0.78 0.82 0.88 0.98 1.03 1.07
0.00 0.00 0.00 0.01 0.00 0.01 0.01 0.01 0.01 0.01 0.01 0.01 0.01 0.02 0.03 0.03 0.03 0.03 0.03 0.04 0.04 0.07 0.13 0.16 0.20 0.21 0.24 0.28 0.38 0.51 0.58 0.69 0.78 0.80 0.74 0.75 0.75 0.75 0.75 0.80 0.83 0.88 0.88
0.00 0.00 0.00 0.00 0.01 0.01 0.00 0.00 0.01 0.01 0.01 0.01 0.01 0.01 0.02 0.03 0.03 0.05 0.04 0.03 0.03 0.04 0.06 0.07 0.11 0.17 0.20 0.18 0.22 0.32 0.47 0.63 0.84 1.08 1.08 1.07 1.02 0.93 0.82 0.75 0.70 0.68 0.71

GEFSMW_prec_meanprecacc_174.txt.gz
Total_Precipitation_Accumulation
0.19 0.19 0.23 0.25 0.24 0.23 0.26 0.32 0.36 0.44 0.53 0.61 0.75 0.96 1.24 1.35 1.44 1.40 1.22 1.16 1.28 1.52 1.73 1.69 1.74 1.78 1.66 1.63 1.66 1.86 1.81 1.54 1.30 1.33 1.16 0.98 0.83 0.94 0.99 0.96 0.98 0.99 1.05
0.13 0.11 0.13 0.15 0.16 0.17 0.18 0.24 0.32 0.42 0.51 0.60 0.77 0.94 1.08 1.08 1.26 1.41 1.39 1.30 1.29 1.44 1.58 1.83 1.93 1.86 1.88 2.01 2.02 2.35 2.50 2.06 1.63 1.62 1.74 1.47 1.26 1.00 0.86 0.92 0.94 1.03 1.22
0.13 0.11 0.11 0.11 0.11 0.12 0.13 0.17 0.24 0.35 0.48 0.64 0.87 1.09 1.27 1.36 1.42 1.35 1.43 1.44 1.37 1.41 1.51 1.67 1.82 1.84 1.91 2.01 2.12 2.45 2.91 2.67 2.13 1.89 2.08 1.78 1.58 1.39 1.05 0.90 0.92 1.02 1.23
0.15 0.12 0.10 0.11 0.11 0.11 0.10 0.14 0.23 0.38 0.59 0.80 1.06 1.31 1.51 1.55 1.44 1.48 1.51 1.39 1.34 1.31 1.37 1.51 1.65 1.78 1.80 1.94 2.04 2.15 2.62 2.94 2.62 2.32 1.98 1.65 1.57 1.67 1.49 1.13 1.04 1.08 1.16
0.19 0.17 0.15 0.17 0.18 0.17 0.19 0.26 0.46 0.71 0.96 1.17 1.43 1.72 1.72 1.61 1.51 1.51 1.48 1.42 1.43 1.40 1.39 1.54 1.61 1.63 1.68 1.79 2.12 2.37 2.62 2.81 2.75 2.64 2.46 2.20 1.91 1.57 1.68 1.62 1.35 1.22 1.14
0.26 0.31 0.34 0.40 0.45 0.48 0.62 0.82 1.09 1.27 1.36 1.49 1.64 1.76 1.73 1.74 1.68 1.50 1.40 1.40 1.44 1.49 1.54 1.60 1.60 1.58 1.61 1.72 1.94 2.22 2.43 2.74 2.90 2.79 2.57 2.42 2.29 2.07 1.91 1.69 1.58 1.52 1.30
0.36 0.48 0.62 0.75 0.86 0.99 1.13 1.26 1.44 1.59 1.54 1.51 1.56 1.59 1.60 1.59 1.57 1.51 1.41 1.36 1.37 1.38 1.42 1.53 1.65 1.73 1.76 1.87 2.04 2.19 2.10 2.31 2.69 2.67 2.52 2.42 2.21 2.17 2.21 2.02 1.73 1.60 1.31
0.54 0.65 0.73 0.84 1.01 1.15 1.21 1.22 1.33 1.43 1.40 1.38 1.35 1.32 1.37 1.40 1.35 1.28 1.26 1.29 1.36 1.34 1.29 1.33 1.44 1.58 1.75 1.79 1.84 1.86 1.83 1.96 2.20 2.29 2.46 2.56 2.31 2.15 2.01 1.92 1.96 1.74 1.47
0.81 0.96 1.06 1.18 1.23 1.27 1.32 1.25 1.24 1.30 1.31 1.25 1.16 1.14 1.19 1.24 1.25 1.19 1.20 1.19 1.18 1.11 1.03 1.04 1.08 1.16 1.25 1.33 1.48 1.57 1.68 1.73 1.85 2.01 2.13 2.27 2.36 2.26 2.02 1.93 1.92 1.89 1.70
1.05 1.34 1.59 1.76 1.59 1.33 1.22 1.19 1.12 1.13 1.23 1.20 1.12 1.07 1.14 1.14 1.12 1.15 1.12 1.11 1.11 1.03 0.96 0.92 0.88 0.84 0.83 0.88 1.06 1.25 1.37 1.48 1.64 1.83 1.95 1.96 2.01 2.19 2.15 1.97 1.95 1.87 1.73
1.20 1.35 1.55 1.73 1.63 1.32 1.10 1.11 1.13 1.11 1.10 1.09 1.09 1.08 1.05 0.94 0.92 0.97 0.97 0.96 0.96 1.01 1.00 0.91 0.85 0.91 0.91 0.89 0.95 1.01 1.06 1.14 1.28 1.43 1.56 1.71 1.95 2.23 2.25 2.19 2.08 1.95 1.80
1.11 1.09 1.15 1.21 1.24 1.10 0.92 0.88 1.03 1.10 1.06 1.02 1.03 1.02 0.92 0.86 0.82 0.80 0.77 0.69 0.66 0.69 0.78 0.87 0.82 0.80 0.83 0.86 0.92 0.95 0.98 1.00 1.08 1.18 1.31 1.49 1.77 2.10 2.31 2.39 2.28 2.13 1.97
1.08 1.05 0.97 0.90 0.93 0.90 0.83 0.80 0.93 1.08 1.13 1.10 0.95 0.84 0.80 0.76 0.74 0.65 0.61 0.57 0.52 0.52 0.57 0.66 0.67 0.76 0.83 0.86 0.88 0.90 0.94 0.96 1.04 1.18 1.24 1.29 1.48 1.67 1.88 2.06 2.19 2.18 2.15
0.78 0.72 0.67 0.62 0.62 0.65 0.69 0.75 0.86 0.95 1.08 1.20 1.09 0.94 0.83 0.75 0.70 0.62 0.58 0.54 0.51 0.54 0.61 0.73 0.78 0.73 0.71 0.76 0.86 0.90 0.86 0.85 0.88 0.97 1.06 1.16 1.20 1.36 1.50 1.61 1.80 2.01 2.24
0.39 0.38 0.38 0.36 0.35 0.35 0.37 0.46 0.59 0.75 0.94 1.17 1.17 1.02 0.94 0.86 0.72 0.66 0.64 0.61 0.64 0.61 0.63 0.73 0.83 0.90 0.85 0.82 0.91 0.88 0.86 0.85 0.84 0.89 0.89 0.95 0.98 1.04 1.22 1.26 1.48 1.81 2.06
0.26 0.26 0.24 0.22 0.17 0.16 0.18 0.20 0.29 0.46 0.64 0.81 0.90 0.87 0.78 0.67 0.63 0.62 0.60 0.56 0.55 0.51 0.50 0.54 0.61 0.70 0.74 0.94 0.90 0.74 0.71 0.77 0.83 0.88 0.87 0.89 0.83 0.82 0.88 1.01 1.14 1.44 1.65
0.20 0.19 0.20 0.20 0.18 0.17 0.16 0.17 0.21 0.27 0.38 0.51 0.62 0.62 0.56 0.49 0.45 0.49 0.49 0.46 0.41 0.42 0.39 0.39 0.39 0.45 0.60 0.69 0.54 0.52 0.58 0.72 0.84 0.91 0.93 0.89 0.84 0.88 0.89 0.91 0.93 1.00 1.17
0.18 0.18 0.18 0.16 0.15 0.14 0.13 0.14 0.16 0.19 0.21 0.26 0.31 0.32 0.33 0.33 0.33 0.35 0.35 0.34 0.33 0.31 0.31 0.38 0.45 0.47 0.49 0.55 0.46 0.45 0.55 0.75 0.88 0.88 0.84 0.90 0.91 0.94 1.00 0.93 1.00 0.96 0.94
0.10 0.09 0.08 0.07 0.05 0.05 0.05 0.06 0.06 0.08 0.08 0.09 0.11 0.13 0.16 0.19 0.22 0.22 0.24 0.31 0.34 0.35 0.38 0.49 0.56 0.50 0.44 0.49 0.49 0.55 0.69 0.81 0.90 0.86 0.86 0.93 0.98 1.10 1.15 1.06 1.11 1.07 1.04
0.02 0.02 0.02 0.02 0.01 0.01 0.01 0.01 0.01 0.02 0.03 0.02 0.03 0.04 0.05 0.06 0.09 0.13 0.16 0.21 0.25 0.32 0.39 0.41 0.39 0.39 0.46 0.52 0.51 0.64 0.82 0.94 1.04 1.00 0.99 1.18 1.13 1.10 1.05 1.03 1.18 1.15 1.00
0.00 0.00 0.00 0.00 0.00 0.00 0.00 0.00 0.01 0.01 0.02 0.03 0.04 0.04 0.04 0.03 0.04 0.05 0.06 0.10 0.14 0.17 0.19 0.21 0.25 0.32 0.48 0.53 0.57 0.76 0.86 0.92 1.07 1.09 1.05 0.99 1.12 1.06 0.98 0.98 1.04 1.17 1.06
0.00 0.00 0.01 0.00 0.00 0.00 0.00 0.00 0.00 0.01 0.01 0.02 0.04 0.04 0.03 0.03 0.03 0.03 0.04 0.04 0.06 0.10 0.13 0.16 0.21 0.26 0.33 0.41 0.48 0.61 0.74 0.83 1.00 1.07 0.97 0.87 1.10 1.06 0.97 0.89 0.92 1.06 1.13
0.00 0.00 0.01 0.01 0.00 0.01 0.01 0.01 0.01 0.01 0.01 0.02 0.04 0.04 0.04 0.03 0.02 0.03 0.03 0.03 0.04 0.07 0.10 0.14 0.21 0.27 0.32 0.34 0.40 0.48 0.57 0.69 0.88 0.93 0.94 0.96 1.00 0.92 0.88 0.96 0.99 1.02 1.05
0.00 0.00 0.00 0.01 0.01 0.01 0.01 0.01 0.01 0.02 0.02 0.02 0.02 0.03 0.04 0.04 0.04 0.04 0.04 0.04 0.04 0.07 0.11 0.18 0.24 0.28 0.32 0.34 0.42 0.49 0.53 0.63 0.72 0.74 0.77 0.81 0.78 0.78 0.82 0.89 0.98 1.04 1.08
0.00 0.00 0.00 0.01 0.01 0.01 0.01 0.01 0.01 0.01 0.01 0.01 0.02 0.03 0.04 0.05 0.04 0.03 0.04 0.05 0.05 0.07 0.13 0.17 0.20 0.22 0.24 0.29 0.39 0.52 0.59 0.69 0.79 0.81 0.75 0.76 0.76 0.75 0.75 0.80 0.84 0.88 0.89
0.00 0.00 0.00 0.00 0.01 0.01 0.01 0.01 0.01 0.01 0.01 0.01 0.01 0.02 0.03 0.03 0.04 0.05 0.04 0.04 0.04 0.05 0.06 0.08 0.11 0.17 0.21 0.19 0.22 0.33 0.47 0.63 0.85 1.08 1.08 1.08 1.02 0.94 0.83 0.76 0.70 0.69 0.71

GEFSMW_prec_meanprecacc_180.txt.gz
Total_Precipitation_Accumulation
0.20 0.20 0.24 0.25 0.24 0.24 0.27 0.33 0.37 0.44 0.53 0.61 0.75 0.96 1.24 1.35 1.44 1.40 1.22 1.16 1.28 1.52 1.73 1.69 1.74 1.78 1.66 1.63 1.67 1.86 1.82 1.55 1.31 1.34 1.17 0.99 0.83 0.96 1.00 0.98 0.99 1.01 1.07
0.14 0.12 0.15 0.16 0.16 0.17 0.18 0.24 0.32 0.42 0.51 0.60 0.77 0.94 1.08 1.08 1.26 1.41 1.39 1.30 1.29 1.44 1.58 1.83 1.93 1.86 1.89 2.01 2.02 2.35 2.50 2.07 1.64 1.63 1.74 1.48 1.26 1.01 0.89 0.94 0.96 1.06 1.25
0.13 0.11 0.11 0.11 0.11 0.12 0.13 0.18 0.25 0.35 0.48 0.64 0.87 1.09 1.27 1.36 1.42 1.35 1.43 1.44 1.37 1.41 1.51 1.67 1.83 1.84 1.91 2.01 2.13 2.45 2.91 2.68 2.14 1.90 2.09 1.79 1.58 1.39 1.06 0.92 0.94 1.06 1.26
0.15 0.12 0.10 0.11 0.11 0.11 0.10 0.14 0.23 0.38 0.59 0.80 1.06 1.31 1.51 1.55 1.44 1.48 1.51 1.40 1.34 1.31 1.37 1.51 1.66 1.78 1.81 1.94 2.04 2.16 2.62 2.95 2.63 2.34 1.99 1.66 1.58 1.68 1.50 1.16 1.07 1.12 1.20
0.19 0.17 0.15 0.17 0.18 0.18 0.19 0.26 0.46 0.71 0.96 1.18 1.43 1.72 1.72 1.61 1.51 1.51 1.48 1.42 1.43 1.40 1.39 1.54 1.61 1.63 1.69 1.79 2.12 2.38 2.63 2.82 2.76 2.65 2.47 2.21 1.92 1.58 1.70 1.64 1.39 1.25 1.17
0.26 0.31 0.35 0.40 0.45 0.48 0.62 0.82 1.09 1.28 1.36 1.49 1.64 1.76 1.73 1.74 1.68 1.50 1.40 1.40 1.44 1.49 1.54 1.60 1.61 1.58 1.61 1.72 1.94 2.22 2.43 2.74 2.90 2.79 2.57 2.43 2.30 2.08 1.93 1.71 1.60 1.56 1.33
0.36 0.48 0.63 0.75 0.86 1.00 1.13 1.26 1.44 1.60 1.55 1.51 1.56 1.59 1.60 1.59 1.57 1.51 1.41 1.36 1.37 1.39 1.42 1.53 1.65 1.73 1.76 1.88 2.05 2.19 2.10 2.32 2.69 2.68 2.53 2.43 2.21 2.18 2.21 2.03 1.74 1.62 1.33
0.54 0.65 0.73 0.85 1.01 1.16 1.22 1.23 1.33 1.43 1.41 1.39 1.35 1.32 1.38 1.40 1.36 1.28 1.26 1.30 1.37 1.35 1.29 1.34 1.45 1.58 1.75 1.80 1.85 1.86 1.83 1.96 2.20 2.29 2.46 2.56 2.32 2.16 2.03 1.93 1.98 1.76 1.48
0.81 0.96 1.06 1.18 1.23 1.27 1.33 1.25 1.25 1.30 1.31 1.26 1.17 1.15 1.19 1.24 1.26 1.20 1.21 1.19 1.19 1.11 1.04 1.04 1.09 1.17 1.26 1.33 1.49 1.58 1.69 1.73 1.86 2.02 2.14 2.28 2.37 2.27 2.04 1.95 1.94 1.90 1.71
1.05 1.35 1.59 1.76 1.59 1.33 1.23 1.19 1.12 1.13 1.23 1.21 1.14 1.08 1.15 1.15 1.13 1.16 1.13 1.12 1.12 1.03 0.96 0.92 0.88 0.85 0.84 0.89 1.07 1.26 1.39 1.49 1.64 1.83 1.95 1.97 2.03 2.21 2.17 1.98 1.96 1.88 1.74
1.20 1.35 1.55 1.73 1.63 1.33 1.10 1.12 1.14 1.12 1.11 1.10 1.10 1.09 1.06 0.95 0.93 0.98 0.98 0.97 0.97 1.01 1.00 0.92 0.85 0.92 0.92 0.89 0.95 1.02 1.08 1.14 1.29 1.44 1.57 1.72 1.97 2.26 2.27 2.21 2.08 1.96 1.81
1.11 1.10 1.15 1.21 1.24 1.11 0.92 0.89 1.04 1.11 1.06 1.02 1.04 1.03 0.92 0.86 0.82 0.80 0.77 0.69 0.66 0.69 0.78 0.87 0.82 0.80 0.83 0.86 0.92 0.95 0.99 1.01 1.09 1.19 1.32 1.50 1.78 2.12 2.33 2.40 2.29 2.13 1.98
1.08 1.05 0.97 0.90 0.93 0.90 0.83 0.80 0.94 1.08 1.13 1.10 0.95 0.84 0.80 0.76 0.74 0.66 0.61 0.58 0.52 0.52 0.57 0.66 0.67 0.76 0.83 0.86 0.88 0.90 0.94 0.96 1.04 1.19 1.24 1.30 1.49 1.68 1.89 2.07 2.19 2.18 2.15
0.78 0.73 0.67 0.62 0.62 0.65 0.69 0.75 0.86 0.95 1.08 1.20 1.09 0.94 0.84 0.76 0.71 0.63 0.58 0.54 0.52 0.54 0.61 0.73 0.78 0.73 0.71 0.76 0.86 0.90 0.86 0.85 0.88 0.97 1.06 1.16 1.21 1.36 1.50 1.61 1.80 2.01 2.24
0.40 0.39 0.38 0.36 0.35 0.35 0.37 0.46 0.59 0.75 0.95 1.17 1.17 1.03 0.95 0.86 0.73 0.66 0.64 0.61 0.64 0.61 0.63 0.73 0.83 0.90 0.85 0.82 0.91 0.88 0.86 0.85 0.84 0.89 0.89 0.95 0.98 1.04 1.22 1.27 1.48 1.81 2.07
0.26 0.26 0.24 0.22 0.17 0.16 0.18 0.20 0.29 0.47 0.64 0.81 0.91 0.88 0.78 0.68 0.64 0.62 0.60 0.56 0.55 0.51 0.50 0.54 0.61 0.70 0.74 0.94 0.90 0.75 0.71 0.77 0.83 0.88 0.87 0.89 0.83 0.82 0.88 1.01 1.14 1.44 1.65
0.20 0.20 0.20 0.20 0.18 0.17 0.16 0.17 0.22 0.28 0.38 0.51 0.62 0.62 0.56 0.49 0.45 0.49 0.49 0.46 0.41 0.42 0.39 0.39 0.39 0.45 0.60 0.69 0.54 0.53 0.58 0.72 0.84 0.91 0.93 0.89 0.84 0.88 0.89 0.91 0.93 1.00 1.17
0.19 0.18 0.18 0.16 0.15 0.14 0.13 0.14 0.17 0.19 0.21 0.27 0.31 0.32 0.33 0.33 0.33 0.35 0.35 0.35 0.33 0.31 0.31 0.38 0.45 0.47 0.49 0.56 0.46 0.45 0.55 0.75 0.88 0.88 0.84 0.90 0.91 0.94 1.00 0.93 1.00 0.96 0.94
0.10 0.09 0.08 0.07 0.05 0.05 0.05 0.06 0.07 0.08 0.09 0.09 0.11 0.13 0.16 0.19 0.22 0.23 0.25 0.32 0.35 0.35 0.38 0.49 0.56 0.50 0.44 0.49 0.49 0.55 0.69 0.81 0.90 0.87 0.86 0.93 0.98 1.10 1.15 1.06 1.11 1.08 1.04
0.02 0.02 0.02 0.02 0.01 0.01 0.01 0.02 0.03 0.03 0.04 0.05 0.05 0.06 0.06 0.07 0.10 0.14 0.17 0.21 0.26 0.32 0.40 0.42 0.39 0.40 0.46 0.52 0.51 0.64 0.82 0.94 1.04 1.00 0.99 1.18 1.13 1.10 1.05 1.03 1.18 1.15 1.00
0.00 0.00 0.01 0.01 0.00 0.00 0.00 0.01 0.01 0.01 0.03 0.05 0.06 0.06 0.06 0.05 0.05 0.06 0.07 0.10 0.15 0.17 0.20 0.21 0.26 0.33 0.48 0.54 0.57 0.77 0.86 0.92 1.07 1.09 1.05 0.99 1.12 1.06 0.99 0.98 1.04 1.17 1.06
0.00 0.00 0.01 0.00 0.00 0.01 0.01 0.01 0.01 0.01 0.02 0.03 0.05 0.05 0.04 0.04 0.03 0.03 0.04 0.04 0.07 0.10 0.13 0.17 0.23 0.28 0.34 0.42 0.48 0.61 0.74 0.83 1.00 1.08 0.98 0.88 1.11 1.07 0.97 0.89 0.92 1.06 1.13
0.00 0.00 0.01 0.01 0.01 0.01 0.01 0.01 0.02 0.02 0.02 0.03 0.05 0.05 0.05 0.06 0.04 0.04 0.04 0.03 0.05 0.08 0.10 0.14 0.21 0.30 0.34 0.36 0.42 0.48 0.58 0.70 0.88 0.93 0.95 0.96 1.00 0.92 0.88 0.96 0.99 1.02 1.05
0.00 0.00 0.01 0.01 0.01 0.01 0.01 0.02 0.03 0.03 0.04 0.03 0.03 0.04 0.05 0.07 0.05 0.05 0.05 0.04 0.04 0.07 0.11 0.18 0.24 0.29 0.34 0.36 0.44 0.52 0.54 0.63 0.72 0.74 0.78 0.82 0.79 0.78 0.82 0.89 0.98 1.04 1.09
0.00 0.00 0.00 0.01 0.01 0.01 0.01 0.02 0.02 0.02 0.02 0.03 0.03 0.04 0.06 0.07 0.05 0.04 0.04 0.05 0.05 0.07 0.13 0.17 0.20 0.22 0.25 0.31 0.41 0.55 0.62 0.72 0.81 0.82 0.75 0.77 0.77 0.75 0.75 0.80 0.84 0.89 0.90
0.00 0.00 0.00 0.00 0.01 0.01 0.01 0.01 0.02 0.02 0.02 0.03 0.03 0.04 0.05 0.05 0.05 0.06 0.05 0.04 0.04 0.05 0.06 0.08 0.11 0.17 0.21 0.19 0.23 0.34 0.50 0.67 0.90 1.12 1.11 1.11 1.04 0.94 0.84 0.77 0.72 0.70 0.73

GEFSMW_prec_meanprecacc_186.txt.gz
Total_Precipitation_Accumulation
0.23 0.22 0.25 0.26 0.25 0.25 0.28 0.34 0.38 0.46 0.53 0.61 0.75 0.96 1.24 1.35 1.44 1.40 1.22 1.16 1.28 1.52 1.73 1.69 1.74 1.78 1.67 1.63 1.67 1.86 1.82 1.55 1.31 1.34 1.18 0.99 0.85 0.97 1.01 0.99 1.02 1.03 1.09
0.16 0.14 0.16 0.17 0.17 0.17 0.19 0.25 0.33 0.43 0.51 0.60 0.78 0.94 1.08 1.08 1.26 1.41 1.39 1.30 1.29 1.44 1.58 1.83 1.93 1.86 1.89 2.01 2.03 2.36 2.50 2.07 1.64 1.63 1.74 1.48 1.27 1.02 0.89 0.95 0.99 1.09 1.28
0.17 0.15 0.14 0.13 0.12 0.13 0.14 0.18 0.25 0.36 0.49 0.64 0.87 1.09 1.27 1.36 1.42 1.35 1.43 1.44 1.37 1.41 1.51 1.67 1.83 1.84 1.92 2.01 2.13 2.45 2.92 2.68 2.15 1.90 2.09 1.79 1.58 1.40 1.07 0.93 0.96 1.08 1.29
0.17 0.16 0.13 0.14 0.13 0.12 0.11 0.15 0.24 0.39 0.60 0.81 1.06 1.31 1.51 1.55 1.44 1.48 1.51 1.40 1.34 1.31 1.37 1.52 1.66 1.78 1.81 1.94 2.04 2.16 2.62 2.95 2.64 2.34 2.00 1.66 1.58 1.68 1.50 1.17 1.11 1.15 1.22
0.20 0.18 0.16 0.19 0.19 0.19 0.20 0.27 0.47 0.72 0.97 1.19 1.44 1.72 1.72 1.61 1.51 1.51 1.48 1.42 1.44 1.40 1.39 1.54 1.61 1.63 1.69 1.79 2.12 2.38 2.63 2.82 2.76 2.66 2.47 2.21 1.92 1.59 1.71 1.65 1.41 1.29 1.21
0.26 0.31 0.35 0.41 0.46 0.49 0.64 0.83 1.10 1.28 1.37 1.49 1.65 1.76 1.73 1.74 1.68 1.50 1.40 1.40 1.44 1.49 1.54 1.60 1.61 1.58 1.61 1.72 1.95 2.23 2.44 2.74 2.90 2.79 2.58 2.43 2.30 2.08 1.95 1.73 1.61 1.59 1.38
0.36 0.48 0.63 0.76 0.87 1.00 1.14 1.27 1.45 1.60 1.55 1.52 1.56 1.60 1.60 1.59 1.58 1.52 1.42 1.36 1.37 1.39 1.42 1.53 1.65 1.73 1.76 1.88 2.05 2.19 2.10 2.32 2.69 2.68 2.53 2.43 2.22 2.18 2.23 2.05 1.76 1.64 1.37
0.55 0.65 0.74 0.85 1.01 1.16 1.22 1.23 1.34 1.44 1.42 1.40 1.36 1.32 1.38 1.40 1.36 1.28 1.26 1.30 1.37 1.35 1.29 1.34 1.45 1.59 1.75 1.80 1.85 1.86 1.83 1.96 2.21 2.29 2.46 2.56 2.32 2.16 2.04 1.95 1.99 1.77 1.50
0.81 0.96 1.07 1.19 1.24 1.27 1.33 1.25 1.25 1.31 1.32 1.26 1.17 1.15 1.19 1.25 1.26 1.20 1.21 1.19 1.19 1.12 1.04 1.05 1.09 1.17 1.26 1.34 1.49 1.58 1.70 1.74 1.86 2.02 2.14 2.28 2.37 2.27 2.05 1.96 1.94 1.90 1.71
1.05 1.35 1.59 1.76 1.60 1.33 1.23 1.19 1.12 1.14 1.23 1.22 1.14 1.08 1.15 1.15 1.13 1.16 1.13 1.12 1.12 1.03 0.96 0.93 0.88 0.85 0.84 0.89 1.07 1.27 1.40 1.49 1.65 1.83 1.96 1.97 2.03 2.22 2.17 1.98 1.96 1.88 1.75
1.20 1.36 1.55 1.73 1.63 1.33 1.10 1.12 1.14 1.12 1.11 1.10 1.10 1.09 1.06 0.95 0.93 0.98 0.98 0.97 0.97 1.01 1.00 0.92 0.85 0.92 0.92 0.89 0.96 1.02 1.08 1.15 1.29 1.44 1.57 1.72 1.97 2.26 2.27 2.21 2.08 1.96 1.82
1.11 1.10 1.15 1.22 1.24 1.11 0.92 0.89 1.04 1.11 1.07 1.03 1.04 1.03 0.92 0.86 0.82 0.80 0.77 0.69 0.66 0.69 0.78 0.87 0.82 0.80 0.83 0.86 0.93 0.95 0.99 1.01 1.10 1.20 1.33 1.51 1.79 2.13 2.34 2.41 2.29 2.13 1.98
1.09 1.05 0.97 0.91 0.93 0.91 0.83 0.80 0.94 1.09 1.13 1.10 0.95 0.85 0.80 0.76 0.74 0.66 0.61 0.58 0.52 0.52 0.57 0.66 0.67 0.76 0.83 0.86 0.88 0.90 0.94 0.96 1.05 1.19 1.25 1.30 1.50 1.69 1.90 2.08 2.20 2.18 2.15
0.78 0.73 0.67 0.62 0.62 0.66 0.69 0.75 0.86 0.95 1.08 1.20 1.09 0.94 0.84 0.76 0.71 0.63 0.58 0.54 0.52 0.55 0.61 0.73 0.78 0.73 0.71 0.76 0.86 0.90 0.86 0.85 0.89 0.97 1.07 1.17 1.21 1.37 1.51 1.61 1.80 2.01 2.24
0.40 0.39 0.39 0.36 0.35 0.36 0.37 0.46 0.60 0.76 0.95 1.17 1.18 1.03 0.95 0.86 0.73 0.66 0.64 0.61 0.64 0.61 0.63 0.73 0.84 0.90 0.85 0.82 0.91 0.88 0.86 0.85 0.84 0.89 0.89 0.96 0.98 1.04 1.22 1.27 1.49 1.81 2.07
0.27 0.26 0.25 0.23 0.17 0.16 0.19 0.21 0.30 0.47 0.65 0.82 0.91 0.88 0.78 0.68 0.64 0.63 0.60 0.56 0.55 0.51 0.50 0.54 0.61 0.70 0.74 0.94 0.90 0.75 0.71 0.77 0.83 0.88 0.87 0.89 0.84 0.82 0.88 1.01 1.14 1.44 1.65
0.21 0.21 0.21 0.20 0.19 0.18 0.17 0.18 0.22 0.28 0.38 0.52 0.62 0.62 0.56 0.50 0.46 0.49 0.49 0.46 0.41 0.42 0.40 0.39 0.39 0.45 0.60 0.69 0.54 0.53 0.58 0.72 0.84 0.91 0.94 0.90 0.84 0.89 0.90 0.91 0.93 1.00 1.17
0.20 0.19 0.19 0.17 0.15 0.15 0.13 0.15 0.17 0.20 0.21 0.27 0.31 0.33 0.34 0.33 0.34 0.36 0.36 0.36 0.35 0.33 0.31 0.38 0.45 0.47 0.49 0.56 0.46 0.45 0.55 0.75 0.88 0.88 0.84 0.91 0.92 0.94 1.00 0.94 1.01 0.96 0.94
0.10 0.10 0.09 0.08 0.06 0.06 0.06 0.07 0.08 0.09 0.10 0.10 0.12 0.14 0.17 0.21 0.25 0.26 0.29 0.36 0.38 0.37 0.39 0.50 0.57 0.51 0.44 0.49 0.50 0.55 0.69 0.82 0.90 0.87 0.86 0.94 0.98 1.11 1.16 1.06 1.11 1.08 1.04
0.03 0.03 0.03 0.02 0.01 0.01 0.02 0.02 0.03 0.04 0.05 0.05 0.06 0.08 0.10 0.12 0.15 0.19 0.22 0.24 0.27 0.33 0.40 0.42 0.40 0.41 0.47 0.54 0.52 0.64 0.82 0.94 1.04 1.00 0.99 1.18 1.13 1.11 1.05 1.03 1.18 1.15 1.00
0.01 0.01 0.01 0.01 0.01 0.01 0.01 0.01 0.02 0.02 0.03 0.05 0.08 0.10 0.11 0.10 0.10 0.09 0.08 0.11 0.16 0.18 0.20 0.22 0.27 0.34 0.49 0.54 0.57 0.77 0.86 0.92 1.07 1.09 1.05 0.99 1.12 1.06 0.99 0.98 1.04 1.17 1.06
0.01 0.01 0.01 0.01 0.00 0.01 0.01 0.01 0.02 0.02 0.02 0.04 0.07 0.08 0.07 0.06 0.06 0.06 0.05 0.05 0.08 0.11 0.14 0.17 0.23 0.29 0.35 0.42 0.49 0.62 0.75 0.83 1.00 1.08 0.98 0.88 1.11 1.07 0.98 0.89 0.92 1.07 1.13
0.00 0.01 0.01 0.01 0.01 0.01 0.01 0.02 0.02 0.02 0.03 0.04 0.05 0.06 0.06 0.07 0.05 0.05 0.05 0.05 0.06 0.08 0.10 0.15 0.22 0.30 0.35 0.37 0.43 0.50 0.59 0.71 0.88 0.94 0.95 0.96 1.00 0.92 0.88 0.97 1.00 1.02 1.05
0.00 0.00 0.01 0.01 0.01 0.01 0.01 0.02 0.03 0.03 0.04 0.04 0.05 0.06 0.06 0.08 0.06 0.06 0.06 0.06 0.05 0.08 0.12 0.19 0.25 0.29 0.34 0.36 0.45 0.53 0.56 0.65 0.73 0.75 0.78 0.82 0.79 0.79 0.83 0.90 0.99 1.04 1.09
0.00 0.00 0.00 0.01 0.01 0.01 0.01 0.02 0.02 0.02 0.02 0.03 0.05 0.05 0.07 0.08 0.05 0.05 0.05 0.05 0.06 0.08 0.14 0.17 0.21 0.23 0.25 0.31 0.41 0.55 0.64 0.74 0.83 0.84 0.76 0.77 0.77 0.76 0.76 0.81 0.85 0.89 0.90
0.00 0.00 0.00 0.01 0.01 0.01 0.01 0.02 0.03 0.03 0.03 0.03 0.04 0.05 0.05 0.05 0.05 0.06 0.05 0.04 0.04 0.05 0.07 0.08 0.12 0.18 0.22 0.20 0.24 0.34 0.51 0.69 0.94 1.18 1.14 1.12 1.05 0.95 0.84 0.77 0.72 0.71 0.73